Observation data for Mertzon on 12/10/2018      Previous  Date       Current Mesonet Observations  Soil Data  Daily Summary Page  Observations in Plain Language
KME1 100600Z 21005KT M03/M04 A3041 RMK A01 T10291037  RH  094%=      5-min Rain = 0
KME1 100601Z 21005KT M03/M04 A3041 RMK A01 T10281037  RH  094%=      5-min Rain = 0
KME1 100602Z 21005KT M03/M04 A3041 RMK A01 T10281037  RH  094%=      5-min Rain = 0
KME1 100603Z 21005KT M03/M04 A3041 RMK A01 T10291037  RH  094%=      5-min Rain = 0
KME1 100604Z 21005KT M03/M04 A3041 RMK A01 T10291037  RH  094%=      5-min Rain = 0
KME1 100605Z 21005KT M03/M04 A3041 RMK A01 T10291038  RH  094%=      5-min Rain = 0
KME1 100606Z 21005KT M03/M04 A3041 RMK A01 T10281037  RH  094%=      5-min Rain = 0
KME1 100607Z 21005KT M03/M04 A3041 RMK A01 T10281038  RH  093%=      5-min Rain = 0
KME1 100608Z 21005KT M03/M04 A3041 RMK A01 T10281038  RH  093%=      5-min Rain = 0
KME1 100609Z 21005KT M03/M04 A3041 RMK A01 T10281038  RH  093%=      5-min Rain = 0
KME1 100610Z 21004KT M03/M04 A3041 RMK A01 T10281038  RH  093%=      5-min Rain = 0
KME1 100611Z 21005KT M03/M04 A3041 RMK A01 T10281038  RH  093%=      5-min Rain = 0
KME1 100612Z 21004KT M03/M04 A3041 RMK A01 T10281038  RH  093%=      5-min Rain = 0
KME1 100613Z 21004KT M03/M04 A3041 RMK A01 T10281038  RH  093%=      5-min Rain = 0
KME1 100614Z 21004KT M03/M04 A3041 RMK A01 T10281038  RH  093%=      5-min Rain = 0
KME1 100615Z 21004KT M03/M04 A3041 RMK A01 T10281038  RH  093%=      5-min Rain = 0
KME1 100616Z 21004KT M03/M04 A3041 RMK A01 T10281038  RH  093%=      5-min Rain = 0
KME1 100617Z 21004KT M03/M04 A3041 RMK A01 T10281038  RH  093%=      5-min Rain = 0
KME1 100618Z 21004KT M03/M04 A3041 RMK A01 T10291039  RH  093%=      5-min Rain = 0
KME1 100619Z 21004KT M03/M04 A3041 RMK A01 T10291039  RH  093%=      5-min Rain = 0
KME1 100620Z 21004KT M03/M04 A3041 RMK A01 T10291039  RH  093%=      5-min Rain = 0
KME1 100621Z 21004KT M03/M04 A3041 RMK A01 T10291039  RH  093%=      5-min Rain = 0
KME1 100622Z 21004KT M03/M04 A3041 RMK A01 T10291038  RH  093%=      5-min Rain = 0
KME1 100623Z 21004KT M03/M04 A3041 RMK A01 T10291039  RH  093%=      5-min Rain = 0
KME1 100624Z 21004KT M03/M04 A3041 RMK A01 T10291039  RH  093%=      5-min Rain = 0
KME1 100625Z 21004KT M03/M04 A3041 RMK A01 T10291039  RH  093%=      5-min Rain = 0
KME1 100626Z 21004KT M03/M04 A3041 RMK A01 T10291039  RH  093%=      5-min Rain = 0
KME1 100627Z 21004KT M03/M04 A3041 RMK A01 T10301039  RH  093%=      5-min Rain = 0
KME1 100628Z 20004KT M03/M04 A3041 RMK A01 T10301039  RH  093%=      5-min Rain = 0
KME1 100629Z 20004KT M03/M04 A3041 RMK A01 T10301039  RH  093%=      5-min Rain = 0
KME1 100630Z 20004KT M03/M04 A3041 RMK A01 T10301039  RH  093%=      5-min Rain = 0
KME1 100631Z 20004KT M03/M04 A3041 RMK A01 T10301039  RH  093%=      5-min Rain = 0
KME1 100632Z 20003KT M03/M04 A3041 RMK A01 T10301039  RH  093%=      5-min Rain = 0
KME1 100633Z 21004KT M03/M04 A3041 RMK A01 T10301040  RH  093%=      5-min Rain = 0
KME1 100634Z 21003KT M03/M04 A3041 RMK A01 T10301039  RH  093%=      5-min Rain = 0
KME1 100635Z 21003KT M03/M04 A3041 RMK A01 T10301040  RH  093%=      5-min Rain = 0
KME1 100636Z 20003KT M03/M04 A3041 RMK A01 T10311040  RH  093%=      5-min Rain = 0
KME1 100637Z 20003KT M03/M04 A3041 RMK A01 T10311040  RH  093%=      5-min Rain = 0
KME1 100638Z 20003KT M03/M04 A3041 RMK A01 T10311040  RH  094%=      5-min Rain = 0
KME1 100639Z 20003KT M03/M04 A3041 RMK A01 T10311040  RH  094%=      5-min Rain = 0
KME1 100640Z 20003KT M03/M04 A3041 RMK A01 T10311040  RH  094%=      5-min Rain = 0
KME1 100641Z 21003KT M03/M04 A3041 RMK A01 T10311040  RH  094%=      5-min Rain = 0
KME1 100642Z 20003KT M03/M04 A3041 RMK A01 T10311040  RH  094%=      5-min Rain = 0
KME1 100643Z 20003KT M03/M04 A3041 RMK A01 T10311040  RH  094%=      5-min Rain = 0
KME1 100644Z 20004KT M03/M04 A3041 RMK A01 T10311040  RH  094%=      5-min Rain = 0
KME1 100645Z 20004KT M03/M04 A304 RMK A01 T10311040  RH  094%=      5-min Rain = 0
KME1 100646Z 20004KT M03/M04 A304 RMK A01 T10311039  RH  094%=      5-min Rain = 0
KME1 100647Z 21004KT M03/M04 A304 RMK A01 T10311039  RH  094%=      5-min Rain = 0
KME1 100648Z 21004KT M03/M04 A304 RMK A01 T10311039  RH  094%=      5-min Rain = 0
KME1 100649Z 21004KT M03/M04 A304 RMK A01 T10311040  RH  094%=      5-min Rain = 0
KME1 100650Z 21004KT M03/M04 A304 RMK A01 T10311040  RH  094%=      5-min Rain = 0
KME1 100651Z 21004KT M03/M04 A304 RMK A01 T10311040  RH  094%=      5-min Rain = 0
KME1 100652Z 21004KT M03/M04 A304 RMK A01 T10311040  RH  094%=      5-min Rain = 0
KME1 100653Z 21004KT M03/M04 A304 RMK A01 T10311040  RH  094%=      5-min Rain = 0
KME1 100654Z 21004KT M03/M04 A304 RMK A01 T10311040  RH  094%=      5-min Rain = 0
KME1 100655Z 21004KT M03/M04 A304 RMK A01 T10311040  RH  094%=      5-min Rain = 0
KME1 100656Z 21004KT M03/M04 A304 RMK A01 T10311040  RH  094%=      5-min Rain = 0
KME1 100657Z 21004KT M03/M04 A304 RMK A01 T10321041  RH  093%=      5-min Rain = 0
KME1 100658Z 21004KT M03/M04 A304 RMK A01 T10321041  RH  093%=      5-min Rain = 0
KME1 100659Z 21004KT M03/M04 A304 RMK A01 T10321041  RH  093%=      5-min Rain = 0
KME1 100700Z 21004KT M03/M04 A304 RMK A01 T10321042  RH  093%=      5-min Rain = 0
KME1 100701Z 21004KT M03/M04 A304 RMK A01 T10321042  RH  093%=      5-min Rain = 0
KME1 100702Z 21004KT M03/M04 A304 RMK A01 T10321042  RH  093%=      5-min Rain = 0
KME1 100703Z 21004KT M03/M04 A304 RMK A01 T10321041  RH  093%=      5-min Rain = 0
KME1 100704Z 21004KT M03/M04 A304 RMK A01 T10321041  RH  093%=      5-min Rain = 0
KME1 100705Z 21004KT M03/M04 A304 RMK A01 T10321042  RH  093%=      5-min Rain = 0
KME1 100706Z 21004KT M03/M04 A304 RMK A01 T10321042  RH  093%=      5-min Rain = 0
KME1 100707Z 21004KT M03/M04 A304 RMK A01 T10321041  RH  093%=      5-min Rain = 0
KME1 100708Z 21004KT M03/M04 A304 RMK A01 T10321042  RH  093%=      5-min Rain = 0
KME1 100709Z 21004KT M03/M04 A304 RMK A01 T10321042  RH  093%=      5-min Rain = 0
KME1 100710Z 21004KT M03/M04 A304 RMK A01 T10321042  RH  093%=      5-min Rain = 0
KME1 100711Z 22003KT M03/M04 A304 RMK A01 T10321042  RH  093%=      5-min Rain = 0
KME1 100712Z 22003KT M03/M04 A304 RMK A01 T10321042  RH  093%=      5-min Rain = 0
KME1 100713Z 23002KT M03/M04 A304 RMK A01 T10321042  RH  093%=      5-min Rain = 0
KME1 100714Z 23002KT M03/M04 A304 RMK A01 T10321042  RH  093%=      5-min Rain = 0
KME1 100715Z 22002KT M03/M04 A304 RMK A01 T10321042  RH  093%=      5-min Rain = 0
KME1 100716Z 21002KT M03/M04 A304 RMK A01 T10321042  RH  093%=      5-min Rain = 0
KME1 100717Z 21002KT M03/M04 A304 RMK A01 T10321042  RH  093%=      5-min Rain = 0
KME1 100718Z 21002KT M03/M04 A304 RMK A01 T10331042  RH  093%=      5-min Rain = 0
KME1 100719Z 21002KT M03/M04 A304 RMK A01 T10321041  RH  093%=      5-min Rain = 0
KME1 100720Z 21002KT M03/M04 A304 RMK A01 T10321041  RH  093%=      5-min Rain = 0
KME1 100721Z 21002KT M03/M04 A304 RMK A01 T10321041  RH  093%=      5-min Rain = 0
KME1 100722Z 21003KT M03/M04 A304 RMK A01 T10321041  RH  093%=      5-min Rain = 0
KME1 100723Z 20003KT M03/M04 A3039 RMK A01 T10321042  RH  093%=      5-min Rain = 0
KME1 100724Z 21003KT M03/M04 A3039 RMK A01 T10321042  RH  093%=      5-min Rain = 0
KME1 100725Z 21003KT M03/M04 A3039 RMK A01 T10321042  RH  093%=      5-min Rain = 0
KME1 100726Z 21003KT M03/M04 A3039 RMK A01 T10331043  RH  093%=      5-min Rain = 0
KME1 100727Z 21003KT M03/M04 A3039 RMK A01 T10331043  RH  093%=      5-min Rain = 0
KME1 100728Z 20003KT M03/M04 A3039 RMK A01 T10331043  RH  093%=      5-min Rain = 0
KME1 100729Z 20003KT M03/M04 A3039 RMK A01 T10341044  RH  093%=      5-min Rain = 0
KME1 100730Z 20003KT M03/M04 A3039 RMK A01 T10341043  RH  093%=      5-min Rain = 0
KME1 100731Z 20003KT M03/M04 A3039 RMK A01 T10341043  RH  093%=      5-min Rain = 0
KME1 100732Z 21003KT M03/M04 A3039 RMK A01 T10341043  RH  093%=      5-min Rain = 0
KME1 100733Z 21004KT M03/M04 A3039 RMK A01 T10341043  RH  093%=      5-min Rain = 0
KME1 100734Z 21004KT M03/M04 A3039 RMK A01 T10341043  RH  093%=      5-min Rain = 0
KME1 100735Z 21004KT M03/M04 A3039 RMK A01 T10341043  RH  093%=      5-min Rain = 0
KME1 100736Z 21004KT M03/M04 A3039 RMK A01 T10341044  RH  093%=      5-min Rain = 0
KME1 100737Z 21004KT M03/M04 A3039 RMK A01 T10341044  RH  093%=      5-min Rain = 0
KME1 100738Z 21004KT M04/M04 A3039 RMK A01 T10351044  RH  093%=      5-min Rain = 0
KME1 100739Z 21003KT M04/M04 A3039 RMK A01 T10351044  RH  093%=      5-min Rain = 0
KME1 100740Z 21003KT M04/M04 A3039 RMK A01 T10351044  RH  093%=      5-min Rain = 0
KME1 100741Z 21003KT M04/M04 A3039 RMK A01 T10351044  RH  093%=      5-min Rain = 0
KME1 100742Z 21003KT M04/M04 A3039 RMK A01 T10351044  RH  093%=      5-min Rain = 0
KME1 100743Z 21003KT M04/M04 A3039 RMK A01 T10351044  RH  093%=      5-min Rain = 0
KME1 100744Z 21003KT M04/M05 A3039 RMK A01 T10361045  RH  094%=      5-min Rain = 0
KME1 100745Z 21003KT M04/M05 A3039 RMK A01 T10361045  RH  094%=      5-min Rain = 0
KME1 100746Z 21003KT M04/M05 A3039 RMK A01 T10361045  RH  094%=      5-min Rain = 0
KME1 100747Z 21003KT M04/M05 A3039 RMK A01 T10361045  RH  094%=      5-min Rain = 0
KME1 100748Z 22003KT M04/M05 A3039 RMK A01 T10361045  RH  094%=      5-min Rain = 0
KME1 100749Z 22003KT M04/M05 A3039 RMK A01 T10361045  RH  094%=      5-min Rain = 0
KME1 100750Z 22003KT M04/M05 A3039 RMK A01 T10361045  RH  094%=      5-min Rain = 0
KME1 100751Z 21003KT M04/M05 A3039 RMK A01 T10361045  RH  094%=      5-min Rain = 0
KME1 100752Z 21003KT M04/M04 A3039 RMK A01 T10361044  RH  094%=      5-min Rain = 0
KME1 100753Z 21004KT M04/M04 A3039 RMK A01 T10361044  RH  094%=      5-min Rain = 0
KME1 100754Z 21003KT M04/M04 A3039 RMK A01 T10361044  RH  094%=      5-min Rain = 0
KME1 100755Z 21004KT M04/M05 A3039 RMK A01 T10361045  RH  094%=      5-min Rain = 0
KME1 100756Z 21003KT M04/M05 A3039 RMK A01 T10361045  RH  094%=      5-min Rain = 0
KME1 100757Z 21003KT M04/M05 A3039 RMK A01 T10361045  RH  094%=      5-min Rain = 0
KME1 100758Z 21003KT M04/M05 A3039 RMK A01 T10371046  RH  094%=      5-min Rain = 0
KME1 100759Z 21003KT M04/M05 A3039 RMK A01 T10371046  RH  094%=      5-min Rain = 0
KME1 100800Z 21003KT M04/M05 A3039 RMK A01 T10381046  RH  094%=      5-min Rain = 0
KME1 100801Z 21003KT M04/M05 A3039 RMK A01 T10381046  RH  094%=      5-min Rain = 0
KME1 100802Z 21003KT M04/M05 A3039 RMK A01 T10381046  RH  094%=      5-min Rain = 0
KME1 100803Z 21004KT M04/M05 A3039 RMK A01 T10381046  RH  094%=      5-min Rain = 0
KME1 100804Z 21004KT M04/M05 A3039 RMK A01 T10381046  RH  094%=      5-min Rain = 0
KME1 100805Z 21004KT M04/M05 A3039 RMK A01 T10381046  RH  094%=      5-min Rain = 0
KME1 100806Z 21004KT M04/M05 A3039 RMK A01 T10381046  RH  094%=      5-min Rain = 0
KME1 100807Z 21004KT M04/M05 A3039 RMK A01 T10381046  RH  094%=      5-min Rain = 0
KME1 100808Z 21004KT M04/M05 A3039 RMK A01 T10381046  RH  094%=      5-min Rain = 0
KME1 100809Z 21003KT M04/M05 A3039 RMK A01 T10371045  RH  094%=      5-min Rain = 0
KME1 100810Z 21003KT M04/M05 A3039 RMK A01 T10371045  RH  094%=      5-min Rain = 0
KME1 100811Z 21003KT M04/M05 A3039 RMK A01 T10381046  RH  094%=      5-min Rain = 0
KME1 100812Z 21003KT M04/M05 A3039 RMK A01 T10381046  RH  094%=      5-min Rain = 0
KME1 100813Z 21003KT M04/M05 A3039 RMK A01 T10381046  RH  094%=      5-min Rain = 0
KME1 100814Z 21003KT M04/M05 A3039 RMK A01 T10381046  RH  094%=      5-min Rain = 0
KME1 100815Z 21003KT M04/M05 A3039 RMK A01 T10381046  RH  094%=      5-min Rain = 0
KME1 100816Z 21003KT M04/M05 A3039 RMK A01 T10381046  RH  094%=      5-min Rain = 0
KME1 100817Z 21003KT M04/M05 A3039 RMK A01 T10381046  RH  094%=      5-min Rain = 0
KME1 100818Z 20004KT M04/M05 A3039 RMK A01 T10381046  RH  094%=      5-min Rain = 0
KME1 100819Z 21004KT M04/M05 A3039 RMK A01 T10381046  RH  094%=      5-min Rain = 0
KME1 100820Z 21003KT M04/M05 A3039 RMK A01 T10371045  RH  094%=      5-min Rain = 0
KME1 100821Z 21003KT M04/M05 A3039 RMK A01 T10381045  RH  094%=      5-min Rain = 0
KME1 100822Z 21003KT M04/M05 A3039 RMK A01 T10371045  RH  094%=      5-min Rain = 0
KME1 100823Z 21003KT M04/M05 A3039 RMK A01 T10371045  RH  094%=      5-min Rain = 0
KME1 100824Z 21003KT M04/M05 A3039 RMK A01 T10371045  RH  094%=      5-min Rain = 0
KME1 100825Z 21003KT M04/M05 A3039 RMK A01 T10371045  RH  094%=      5-min Rain = 0
KME1 100826Z 21003KT M04/M05 A3039 RMK A01 T10371045  RH  094%=      5-min Rain = 0
KME1 100827Z 21003KT M04/M05 A3039 RMK A01 T10371045  RH  094%=      5-min Rain = 0
KME1 100828Z 21003KT M04/M05 A3039 RMK A01 T10371046  RH  094%=      5-min Rain = 0
KME1 100829Z 20004KT M04/M05 A3039 RMK A01 T10371045  RH  094%=      5-min Rain = 0
KME1 100830Z 20004KT M04/M05 A3039 RMK A01 T10371045  RH  094%=      5-min Rain = 0
KME1 100831Z 21003KT M04/M05 A3039 RMK A01 T10371045  RH  094%=      5-min Rain = 0
KME1 100832Z 21004KT M04/M05 A3039 RMK A01 T10371045  RH  094%=      5-min Rain = 0
KME1 100833Z 21004KT M04/M05 A3039 RMK A01 T10361045  RH  094%=      5-min Rain = 0
KME1 100834Z 21004KT M04/M05 A3039 RMK A01 T10361045  RH  093%=      5-min Rain = 0
KME1 100835Z 21004KT M04/M05 A3039 RMK A01 T10361045  RH  093%=      5-min Rain = 0
KME1 100836Z 21004KT M04/M05 A3039 RMK A01 T10371046  RH  093%=      5-min Rain = 0
KME1 100837Z 21004KT M04/M05 A3039 RMK A01 T10371047  RH  093%=      5-min Rain = 0
KME1 100838Z 21004KT M04/M05 A3039 RMK A01 T10381047  RH  093%=      5-min Rain = 0
KME1 100839Z 21004KT M04/M05 A3039 RMK A01 T10381047  RH  093%=      5-min Rain = 0
KME1 100840Z 22004KT M04/M05 A3039 RMK A01 T10371047  RH  093%=      5-min Rain = 0
KME1 100841Z 22004KT M04/M05 A3039 RMK A01 T10381047  RH  093%=      5-min Rain = 0
KME1 100842Z 22004KT M04/M05 A3039 RMK A01 T10381047  RH  093%=      5-min Rain = 0
KME1 100843Z 21004KT M04/M05 A3039 RMK A01 T10391048  RH  093%=      5-min Rain = 0
KME1 100844Z 22003KT M04/M05 A3039 RMK A01 T10391048  RH  093%=      5-min Rain = 0
KME1 100845Z 22004KT M04/M05 A3039 RMK A01 T10391048  RH  093%=      5-min Rain = 0
KME1 100846Z 22004KT M04/M05 A3039 RMK A01 T10391048  RH  093%=      5-min Rain = 0
KME1 100847Z 22004KT M04/M05 A3039 RMK A01 T10391048  RH  093%=      5-min Rain = 0
KME1 100848Z 22004KT M04/M05 A3039 RMK A01 T10391049  RH  093%=      5-min Rain = 0
KME1 100849Z 22004KT M04/M05 A3039 RMK A01 T10391049  RH  093%=      5-min Rain = 0
KME1 100850Z 22004KT M04/M05 A3039 RMK A01 T10391049  RH  093%=      5-min Rain = 0
KME1 100851Z 22004KT M04/M05 A3039 RMK A01 T10391049  RH  093%=      5-min Rain = 0
KME1 100852Z 22004KT M04/M05 A3039 RMK A01 T10401049  RH  093%=      5-min Rain = 0
KME1 100853Z 22004KT M04/M05 A3039 RMK A01 T10401049  RH  093%=      5-min Rain = 0
KME1 100854Z 21004KT M04/M05 A3039 RMK A01 T10401049  RH  094%=      5-min Rain = 0
KME1 100855Z 21004KT M04/M05 A3039 RMK A01 T10401049  RH  094%=      5-min Rain = 0
KME1 100856Z 21004KT M04/M05 A3039 RMK A01 T10401049  RH  094%=      5-min Rain = 0
KME1 100857Z 21004KT M04/M05 A3039 RMK A01 T10401049  RH  093%=      5-min Rain = 0
KME1 100858Z 21004KT M04/M05 A3039 RMK A01 T10401049  RH  094%=      5-min Rain = 0
KME1 100859Z 21004KT M04/M05 A3039 RMK A01 T10391048  RH  094%=      5-min Rain = 0
KME1 100900Z 21004KT M04/M05 A3039 RMK A01 T10401049  RH  094%=      5-min Rain = 0
KME1 100901Z 21004KT M04/M05 A3039 RMK A01 T10401049  RH  094%=      5-min Rain = 0
KME1 100902Z 21004KT M04/M05 A3039 RMK A01 T10401049  RH  093%=      5-min Rain = 0
KME1 100903Z 21004KT M04/M05 A3039 RMK A01 T10401049  RH  094%=      5-min Rain = 0
KME1 100904Z 20004KT M04/M05 A3039 RMK A01 T10401049  RH  093%=      5-min Rain = 0
KME1 100905Z 20004KT M04/M05 A3039 RMK A01 T10401049  RH  093%=      5-min Rain = 0
KME1 100906Z 20004KT M04/M05 A3039 RMK A01 T10401049  RH  093%=      5-min Rain = 0
KME1 100907Z 20004KT M04/M05 A3039 RMK A01 T10401049  RH  093%=      5-min Rain = 0
KME1 100908Z 20004KT M04/M05 A3039 RMK A01 T10401049  RH  093%=      5-min Rain = 0
KME1 100909Z 20004KT M04/M05 A3039 RMK A01 T10401049  RH  094%=      5-min Rain = 0
KME1 100910Z 20004KT M04/M05 A3039 RMK A01 T10401049  RH  094%=      5-min Rain = 0
KME1 100911Z 20004KT M04/M05 A3039 RMK A01 T10401049  RH  094%=      5-min Rain = 0
KME1 100912Z 20004KT M04/M05 A3039 RMK A01 T10401049  RH  094%=      5-min Rain = 0
KME1 100913Z 20004KT M04/M05 A3039 RMK A01 T10401049  RH  094%=      5-min Rain = 0
KME1 100914Z 20004KT M04/M05 A3039 RMK A01 T10401049  RH  094%=      5-min Rain = 0
KME1 100915Z 21004KT M04/M05 A3039 RMK A01 T10411049  RH  094%=      5-min Rain = 0
KME1 100916Z 21003KT M04/M05 A3039 RMK A01 T10411049  RH  094%=      5-min Rain = 0
KME1 100917Z 21003KT M04/M05 A3039 RMK A01 T10411049  RH  094%=      5-min Rain = 0
KME1 100918Z 21003KT M04/M05 A3039 RMK A01 T10411049  RH  094%=      5-min Rain = 0
KME1 100919Z 21003KT M04/M05 A3039 RMK A01 T10411050  RH  094%=      5-min Rain = 0
KME1 100920Z 22003KT M04/M05 A3039 RMK A01 T10411050  RH  094%=      5-min Rain = 0
KME1 100921Z 21003KT M04/M05 A3039 RMK A01 T10411050  RH  094%=      5-min Rain = 0
KME1 100922Z 21003KT M04/M05 A3039 RMK A01 T10411049  RH  094%=      5-min Rain = 0
KME1 100923Z 20003KT M04/M05 A3039 RMK A01 T10411049  RH  094%=      5-min Rain = 0
KME1 100924Z 20003KT M04/M05 A3039 RMK A01 T10411049  RH  094%=      5-min Rain = 0
KME1 100925Z 20003KT M04/M05 A3039 RMK A01 T10411049  RH  094%=      5-min Rain = 0
KME1 100926Z 20003KT M04/M05 A3039 RMK A01 T10421050  RH  094%=      5-min Rain = 0
KME1 100927Z 20003KT M04/M05 A3039 RMK A01 T10421050  RH  094%=      5-min Rain = 0
KME1 100928Z 20003KT M04/M05 A3039 RMK A01 T10411050  RH  094%=      5-min Rain = 0
KME1 100929Z 20003KT M04/M05 A3039 RMK A01 T10421050  RH  094%=      5-min Rain = 0
KME1 100930Z 21003KT M04/M05 A3039 RMK A01 T10421051  RH  094%=      5-min Rain = 0
KME1 100931Z 21004KT M04/M05 A3039 RMK A01 T10431051  RH  094%=      5-min Rain = 0
KME1 100932Z 21004KT M04/M05 A3039 RMK A01 T10431051  RH  094%=      5-min Rain = 0
KME1 100933Z 20004KT M04/M05 A3039 RMK A01 T10431051  RH  094%=      5-min Rain = 0
KME1 100934Z 20003KT M04/M05 A3039 RMK A01 T10431051  RH  094%=      5-min Rain = 0
KME1 100935Z 21003KT M04/M05 A3039 RMK A01 T10431051  RH  094%=      5-min Rain = 0
KME1 100936Z 21003KT M04/M05 A3039 RMK A01 T10431051  RH  094%=      5-min Rain = 0
KME1 100937Z 21003KT M04/M05 A3039 RMK A01 T10431052  RH  094%=      5-min Rain = 0
KME1 100938Z 21003KT M04/M05 A3039 RMK A01 T10431052  RH  094%=      5-min Rain = 0
KME1 100939Z 21003KT M04/M05 A3039 RMK A01 T10431051  RH  094%=      5-min Rain = 0
KME1 100940Z 21003KT M04/M05 A3039 RMK A01 T10431051  RH  094%=      5-min Rain = 0
KME1 100941Z 21003KT M04/M05 A3039 RMK A01 T10431051  RH  094%=      5-min Rain = 0
KME1 100942Z 21004KT M04/M05 A3039 RMK A01 T10431050  RH  095%=      5-min Rain = 0
KME1 100943Z 21004KT M04/M05 A3039 RMK A01 T10421050  RH  095%=      5-min Rain = 0
KME1 100944Z 21004KT M04/M05 A3039 RMK A01 T10421050  RH  095%=      5-min Rain = 0
KME1 100945Z 21004KT M04/M05 A3039 RMK A01 T10411049  RH  095%=      5-min Rain = 0
KME1 100946Z 21004KT M04/M05 A3039 RMK A01 T10411049  RH  095%=      5-min Rain = 0
KME1 100947Z 21004KT M04/M05 A3039 RMK A01 T10411049  RH  094%=      5-min Rain = 0
KME1 100948Z 21004KT M04/M05 A3039 RMK A01 T10411049  RH  094%=      5-min Rain = 0
KME1 100949Z 21004KT M04/M05 A3039 RMK A01 T10411049  RH  094%=      5-min Rain = 0
KME1 100950Z 21004KT M04/M05 A3039 RMK A01 T10411049  RH  094%=      5-min Rain = 0
KME1 100951Z 21004KT M04/M05 A3039 RMK A01 T10411049  RH  094%=      5-min Rain = 0
KME1 100952Z 21004KT M04/M05 A3039 RMK A01 T10411049  RH  094%=      5-min Rain = 0
KME1 100953Z 21004KT M04/M05 A3039 RMK A01 T10411050  RH  094%=      5-min Rain = 0
KME1 100954Z 21004KT M04/M05 A3039 RMK A01 T10411050  RH  093%=      5-min Rain = 0
KME1 100955Z 21004KT M04/M05 A3039 RMK A01 T10411050  RH  093%=      5-min Rain = 0
KME1 100956Z 21004KT M04/M05 A3039 RMK A01 T10411051  RH  093%=      5-min Rain = 0
KME1 100957Z 21004KT M04/M05 A3039 RMK A01 T10411051  RH  093%=      5-min Rain = 0
KME1 100958Z 21004KT M04/M05 A3039 RMK A01 T10411051  RH  093%=      5-min Rain = 0
KME1 100959Z 21004KT M04/M05 A3039 RMK A01 T10411050  RH  093%=      5-min Rain = 0
KME1 101000Z 21004KT M04/M05 A3039 RMK A01 T10411050  RH  093%=      5-min Rain = 0
KME1 101001Z 21004KT M04/M05 A3039 RMK A01 T10411050  RH  093%=      5-min Rain = 0
KME1 101002Z 21004KT M04/M05 A3039 RMK A01 T10411050  RH  093%=      5-min Rain = 0
KME1 101003Z 21004KT M04/M05 A3039 RMK A01 T10411050  RH  093%=      5-min Rain = 0
KME1 101004Z 21004KT M04/M05 A3039 RMK A01 T10411051  RH  093%=      5-min Rain = 0
KME1 101005Z 20004KT M04/M05 A3039 RMK A01 T10411050  RH  093%=      5-min Rain = 0
KME1 101006Z 20004KT M04/M05 A3038 RMK A01 T10411050  RH  093%=      5-min Rain = 0
KME1 101007Z 20004KT M04/M05 A3038 RMK A01 T10411050  RH  093%=      5-min Rain = 0
KME1 101008Z 20004KT M04/M05 A3039 RMK A01 T10411050  RH  093%=      5-min Rain = 0
KME1 101009Z 20004KT M04/M05 A3039 RMK A01 T10411051  RH  093%=      5-min Rain = 0
KME1 101010Z 20003KT M04/M05 A3039 RMK A01 T10421051  RH  093%=      5-min Rain = 0
KME1 101011Z 20003KT M04/M05 A3039 RMK A01 T10421051  RH  093%=      5-min Rain = 0
KME1 101012Z 20004KT M04/M05 A3039 RMK A01 T10421052  RH  093%=      5-min Rain = 0
KME1 101013Z 19004KT M04/M05 A3038 RMK A01 T10421051  RH  093%=      5-min Rain = 0
KME1 101014Z 20003KT M04/M05 A3038 RMK A01 T10421051  RH  093%=      5-min Rain = 0
KME1 101015Z 20003KT M04/M05 A3038 RMK A01 T10421051  RH  093%=      5-min Rain = 0
KME1 101016Z 20003KT M04/M05 A3038 RMK A01 T10421052  RH  093%=      5-min Rain = 0
KME1 101017Z 20003KT M04/M05 A3038 RMK A01 T10431052  RH  093%=      5-min Rain = 0
KME1 101018Z 20003KT M04/M05 A3038 RMK A01 T10421052  RH  093%=      5-min Rain = 0
KME1 101019Z 20004KT M04/M05 A3038 RMK A01 T10421051  RH  093%=      5-min Rain = 0
KME1 101020Z 20004KT M04/M05 A3038 RMK A01 T10431052  RH  094%=      5-min Rain = 0
KME1 101021Z 20004KT M04/M05 A3038 RMK A01 T10421051  RH  094%=      5-min Rain = 0
KME1 101022Z 20004KT M04/M05 A3038 RMK A01 T10421051  RH  094%=      5-min Rain = 0
KME1 101023Z 20004KT M04/M05 A3038 RMK A01 T10421051  RH  094%=      5-min Rain = 0
KME1 101024Z 20004KT M04/M05 A3038 RMK A01 T10431051  RH  094%=      5-min Rain = 0
KME1 101025Z 20004KT M04/M05 A3038 RMK A01 T10431052  RH  094%=      5-min Rain = 0
KME1 101026Z 21004KT M04/M05 A3038 RMK A01 T10431051  RH  094%=      5-min Rain = 0
KME1 101027Z 21004KT M04/M05 A3038 RMK A01 T10431051  RH  094%=      5-min Rain = 0
KME1 101028Z 21004KT M04/M05 A3038 RMK A01 T10431051  RH  094%=      5-min Rain = 0
KME1 101029Z 21004KT M04/M05 A3038 RMK A01 T10431051  RH  094%=      5-min Rain = 0
KME1 101030Z 20004KT M04/M05 A3038 RMK A01 T10431051  RH  094%=      5-min Rain = 0
KME1 101031Z 20004KT M04/M05 A3038 RMK A01 T10421050  RH  094%=      5-min Rain = 0
KME1 101032Z 20004KT M04/M05 A3038 RMK A01 T10421050  RH  094%=      5-min Rain = 0
KME1 101033Z 20004KT M04/M05 A3038 RMK A01 T10421050  RH  094%=      5-min Rain = 0
KME1 101034Z 20004KT M04/M05 A3038 RMK A01 T10421050  RH  094%=      5-min Rain = 0
KME1 101035Z 20004KT M04/M05 A3038 RMK A01 T10421050  RH  094%=      5-min Rain = 0
KME1 101036Z 20004KT M04/M05 A3038 RMK A01 T10421050  RH  094%=      5-min Rain = 0
KME1 101037Z 21003KT M04/M05 A3038 RMK A01 T10421050  RH  094%=      5-min Rain = 0
KME1 101038Z 21003KT M04/M05 A3038 RMK A01 T10421051  RH  094%=      5-min Rain = 0
KME1 101039Z 21003KT M04/M05 A3038 RMK A01 T10421051  RH  094%=      5-min Rain = 0
KME1 101040Z 21003KT M04/M05 A3038 RMK A01 T10431052  RH  094%=      5-min Rain = 0
KME1 101041Z 21003KT M04/M05 A3038 RMK A01 T10431052  RH  094%=      5-min Rain = 0
KME1 101042Z 21004KT M04/M05 A3038 RMK A01 T10431052  RH  094%=      5-min Rain = 0
KME1 101043Z 21004KT M04/M05 A3037 RMK A01 T10431051  RH  094%=      5-min Rain = 0
KME1 101044Z 21004KT M04/M05 A3037 RMK A01 T10431052  RH  094%=      5-min Rain = 0
KME1 101045Z 21004KT M04/M05 A3037 RMK A01 T10431052  RH  094%=      5-min Rain = 0
KME1 101046Z 21004KT M04/M05 A3037 RMK A01 T10431052  RH  094%=      5-min Rain = 0
KME1 101047Z 21004KT M04/M05 A3037 RMK A01 T10431051  RH  094%=      5-min Rain = 0
KME1 101048Z 21004KT M04/M05 A3037 RMK A01 T10431052  RH  094%=      5-min Rain = 0
KME1 101049Z 21004KT M04/M05 A3037 RMK A01 T10431051  RH  094%=      5-min Rain = 0
KME1 101050Z 21004KT M04/M05 A3037 RMK A01 T10431051  RH  094%=      5-min Rain = 0
KME1 101051Z 21004KT M04/M05 A3037 RMK A01 T10431051  RH  094%=      5-min Rain = 0
KME1 101052Z 21005KT M04/M05 A3037 RMK A01 T10431051  RH  094%=      5-min Rain = 0
KME1 101053Z 21005KT M04/M05 A3037 RMK A01 T10431051  RH  094%=      5-min Rain = 0
KME1 101054Z 21005KT M04/M05 A3037 RMK A01 T10431051  RH  094%=      5-min Rain = 0
KME1 101055Z 21005KT M04/M05 A3037 RMK A01 T10431051  RH  094%=      5-min Rain = 0
KME1 101056Z 21005KT M04/M05 A3037 RMK A01 T10431051  RH  094%=      5-min Rain = 0
KME1 101057Z 21005KT M04/M05 A3037 RMK A01 T10431052  RH  094%=      5-min Rain = 0
KME1 101058Z 21005KT M04/M05 A3038 RMK A01 T10431052  RH  094%=      5-min Rain = 0
KME1 101059Z 21005KT M04/M05 A3038 RMK A01 T10431052  RH  094%=      5-min Rain = 0
KME1 101100Z 21004KT M04/M05 A3038 RMK A01 T10441053  RH  094%=      5-min Rain = 0
KME1 101101Z 21004KT M04/M05 A3038 RMK A01 T10441053  RH  094%=      5-min Rain = 0
KME1 101102Z 21004KT M04/M05 A3037 RMK A01 T10441053  RH  094%=      5-min Rain = 0
KME1 101103Z 21004KT M04/M05 A3037 RMK A01 T10441053  RH  094%=      5-min Rain = 0
KME1 101104Z 21004KT M04/M05 A3037 RMK A01 T10441053  RH  094%=      5-min Rain = 0
KME1 101105Z 21004KT M04/M05 A3038 RMK A01 T10441053  RH  094%=      5-min Rain = 0
KME1 101106Z 21004KT M04/M05 A3038 RMK A01 T10441053  RH  094%=      5-min Rain = 0
KME1 101107Z 21003KT M05/M05 A3038 RMK A01 T10451053  RH  094%=      5-min Rain = 0
KME1 101108Z 21003KT M05/M05 A3038 RMK A01 T10451054  RH  094%=      5-min Rain = 0
KME1 101109Z 21003KT M05/M05 A3038 RMK A01 T10451054  RH  094%=      5-min Rain = 0
KME1 101110Z 21003KT M05/M05 A3038 RMK A01 T10451054  RH  094%=      5-min Rain = 0
KME1 101111Z 21003KT M05/M05 A3038 RMK A01 T10451054  RH  094%=      5-min Rain = 0
KME1 101112Z 21003KT M05/M05 A3038 RMK A01 T10451054  RH  093%=      5-min Rain = 0
KME1 101113Z 22003KT M05/M06 A3038 RMK A01 T10461055  RH  093%=      5-min Rain = 0
KME1 101114Z 22003KT M05/M06 A3038 RMK A01 T10461055  RH  094%=      5-min Rain = 0
KME1 101115Z 21003KT M05/M06 A3038 RMK A01 T10461055  RH  094%=      5-min Rain = 0
KME1 101116Z 21003KT M05/M05 A3038 RMK A01 T10461054  RH  094%=      5-min Rain = 0
KME1 101117Z 21004KT M05/M06 A3038 RMK A01 T10461055  RH  094%=      5-min Rain = 0
KME1 101118Z 21004KT M05/M06 A3038 RMK A01 T10461055  RH  093%=      5-min Rain = 0
KME1 101119Z 20004KT M05/M06 A3038 RMK A01 T10461056  RH  093%=      5-min Rain = 0
KME1 101120Z 20003KT M05/M06 A3038 RMK A01 T10461056  RH  093%=      5-min Rain = 0
KME1 101121Z 20003KT M05/M06 A3038 RMK A01 T10471056  RH  093%=      5-min Rain = 0
KME1 101122Z 20003KT M05/M06 A3038 RMK A01 T10471056  RH  093%=      5-min Rain = 0
KME1 101123Z 20003KT M05/M06 A3038 RMK A01 T10461056  RH  093%=      5-min Rain = 0
KME1 101124Z 20003KT M05/M06 A3038 RMK A01 T10471056  RH  093%=      5-min Rain = 0
KME1 101125Z 20003KT M05/M06 A3038 RMK A01 T10471057  RH  093%=      5-min Rain = 0
KME1 101126Z 21003KT M05/M06 A3038 RMK A01 T10471057  RH  093%=      5-min Rain = 0
KME1 101127Z 21003KT M05/M06 A3038 RMK A01 T10471057  RH  093%=      5-min Rain = 0
KME1 101128Z 21003KT M05/M06 A3038 RMK A01 T10481057  RH  093%=      5-min Rain = 0
KME1 101129Z 21003KT M05/M06 A3038 RMK A01 T10481058  RH  093%=      5-min Rain = 0
KME1 101130Z 21003KT M05/M06 A3038 RMK A01 T10481057  RH  093%=      5-min Rain = 0
KME1 101131Z 21003KT M05/M06 A3038 RMK A01 T10481057  RH  093%=      5-min Rain = 0
KME1 101132Z 21003KT M05/M06 A3038 RMK A01 T10471056  RH  094%=      5-min Rain = 0
KME1 101133Z 20003KT M05/M06 A3038 RMK A01 T10471056  RH  094%=      5-min Rain = 0
KME1 101134Z 20003KT M05/M06 A3038 RMK A01 T10471056  RH  094%=      5-min Rain = 0
KME1 101135Z 20003KT M05/M06 A3038 RMK A01 T10471056  RH  094%=      5-min Rain = 0
KME1 101136Z 20003KT M05/M06 A3038 RMK A01 T10471056  RH  094%=      5-min Rain = 0
KME1 101137Z 20004KT M05/M06 A3038 RMK A01 T10471056  RH  093%=      5-min Rain = 0
KME1 101138Z 20004KT M05/M06 A3038 RMK A01 T10471056  RH  093%=      5-min Rain = 0
KME1 101139Z 20003KT M05/M06 A3038 RMK A01 T10471056  RH  093%=      5-min Rain = 0
KME1 101140Z 21003KT M05/M06 A3038 RMK A01 T10471057  RH  093%=      5-min Rain = 0
KME1 101141Z 22003KT M05/M06 A3038 RMK A01 T10471057  RH  093%=      5-min Rain = 0
KME1 101142Z 21004KT M05/M06 A3038 RMK A01 T10471056  RH  093%=      5-min Rain = 0
KME1 101143Z 21004KT M05/M06 A3038 RMK A01 T10471057  RH  093%=      5-min Rain = 0
KME1 101144Z 21004KT M05/M06 A3038 RMK A01 T10471057  RH  093%=      5-min Rain = 0
KME1 101145Z 21004KT M05/M06 A3038 RMK A01 T10471056  RH  093%=      5-min Rain = 0
KME1 101146Z 21004KT M05/M06 A3038 RMK A01 T10471056  RH  093%=      5-min Rain = 0
KME1 101147Z 21003KT M05/M06 A3038 RMK A01 T10471056  RH  093%=      5-min Rain = 0
KME1 101148Z 21003KT M05/M06 A3038 RMK A01 T10471056  RH  093%=      5-min Rain = 0
KME1 101149Z 21003KT M05/M06 A3038 RMK A01 T10471056  RH  093%=      5-min Rain = 0
KME1 101150Z 21003KT M05/M06 A3038 RMK A01 T10471056  RH  093%=      5-min Rain = 0
KME1 101151Z 21003KT M05/M06 A3038 RMK A01 T10471056  RH  093%=      5-min Rain = 0
KME1 101152Z 21003KT M05/M06 A3039 RMK A01 T10471056  RH  093%=      5-min Rain = 0
KME1 101153Z 21003KT M05/M06 A3039 RMK A01 T10471056  RH  093%=      5-min Rain = 0
KME1 101154Z 21003KT M05/M06 A3039 RMK A01 T10471056  RH  093%=      5-min Rain = 0
KME1 101155Z 20003KT M05/M06 A3039 RMK A01 T10471056  RH  093%=      5-min Rain = 0
KME1 101156Z 20003KT M05/M06 A3039 RMK A01 T10471056  RH  093%=      5-min Rain = 0
KME1 101157Z 20003KT M05/M06 A3039 RMK A01 T10471056  RH  093%=      5-min Rain = 0
KME1 101158Z 20003KT M05/M06 A3039 RMK A01 T10471056  RH  093%=      5-min Rain = 0
KME1 101159Z 20003KT M05/M06 A3039 RMK A01 T10471056  RH  093%=      5-min Rain = 0
KME1 101200Z 20003KT M05/M06 A3039 RMK A01 T10471056  RH  093%=      5-min Rain = 0
KME1 101201Z 20003KT M05/M06 A3039 RMK A01 T10471056  RH  093%=      5-min Rain = 0
KME1 101202Z 20003KT M05/M06 A3039 RMK A01 T10471056  RH  093%=      5-min Rain = 0
KME1 101203Z 20003KT M05/M06 A3039 RMK A01 T10471056  RH  093%=      5-min Rain = 0
KME1 101204Z 19003KT M05/M06 A3039 RMK A01 T10471056  RH  093%=      5-min Rain = 0
KME1 101205Z 20003KT M05/M06 A3039 RMK A01 T10461055  RH  094%=      5-min Rain = 0
KME1 101206Z 19003KT M05/M06 A3039 RMK A01 T10461055  RH  094%=      5-min Rain = 0
KME1 101207Z 19004KT M05/M06 A3039 RMK A01 T10461055  RH  094%=      5-min Rain = 0
KME1 101208Z 19004KT M05/M06 A3039 RMK A01 T10461055  RH  094%=      5-min Rain = 0
KME1 101209Z 19004KT M05/M05 A3039 RMK A01 T10461054  RH  094%=      5-min Rain = 0
KME1 101210Z 20004KT M05/M05 A3039 RMK A01 T10451054  RH  094%=      5-min Rain = 0
KME1 101211Z 19004KT M05/M05 A3039 RMK A01 T10451053  RH  094%=      5-min Rain = 0
KME1 101212Z 20004KT M05/M05 A3039 RMK A01 T10451053  RH  094%=      5-min Rain = 0
KME1 101213Z 20004KT M05/M05 A3039 RMK A01 T10451053  RH  094%=      5-min Rain = 0
KME1 101214Z 20004KT M05/M05 A3039 RMK A01 T10451053  RH  094%=      5-min Rain = 0
KME1 101215Z 21004KT M04/M05 A3039 RMK A01 T10441053  RH  093%=      5-min Rain = 0
KME1 101216Z 20004KT M04/M05 A3039 RMK A01 T10441053  RH  093%=      5-min Rain = 0
KME1 101217Z 21004KT M04/M05 A3039 RMK A01 T10441054  RH  093%=      5-min Rain = 0
KME1 101218Z 21004KT M05/M05 A3039 RMK A01 T10451054  RH  093%=      5-min Rain = 0
KME1 101219Z 21004KT M05/M05 A3039 RMK A01 T10451054  RH  093%=      5-min Rain = 0
KME1 101220Z 20004KT M05/M05 A3039 RMK A01 T10451054  RH  093%=      5-min Rain = 0
KME1 101221Z 21004KT M05/M06 A3039 RMK A01 T10451055  RH  093%=      5-min Rain = 0
KME1 101222Z 21003KT M05/M06 A3039 RMK A01 T10451055  RH  093%=      5-min Rain = 0
KME1 101223Z 20004KT M05/M06 A3039 RMK A01 T10451055  RH  093%=      5-min Rain = 0
KME1 101224Z 20004KT M05/M06 A3039 RMK A01 T10461055  RH  093%=      5-min Rain = 0
KME1 101225Z 20004KT M05/M06 A3039 RMK A01 T10461055  RH  093%=      5-min Rain = 0
KME1 101226Z 20004KT M05/M06 A3039 RMK A01 T10461055  RH  093%=      5-min Rain = 0
KME1 101227Z 20004KT M05/M06 A3039 RMK A01 T10461055  RH  093%=      5-min Rain = 0
KME1 101228Z 20004KT M05/M06 A3039 RMK A01 T10461056  RH  093%=      5-min Rain = 0
KME1 101229Z 20004KT M05/M06 A3039 RMK A01 T10461055  RH  093%=      5-min Rain = 0
KME1 101230Z 20005KT M05/M06 A3039 RMK A01 T10461055  RH  093%=      5-min Rain = 0
KME1 101231Z 20004KT M05/M06 A3039 RMK A01 T10461055  RH  093%=      5-min Rain = 0
KME1 101232Z 20005KT M05/M06 A3039 RMK A01 T10461055  RH  093%=      5-min Rain = 0
KME1 101233Z 20004KT M05/M06 A3039 RMK A01 T10461055  RH  093%=      5-min Rain = 0
KME1 101234Z 20005KT M05/M06 A3039 RMK A01 T10461055  RH  093%=      5-min Rain = 0
KME1 101235Z 20005KT M05/M06 A3039 RMK A01 T10451055  RH  093%=      5-min Rain = 0
KME1 101236Z 20005KT M05/M05 A3039 RMK A01 T10451054  RH  093%=      5-min Rain = 0
KME1 101237Z 20004KT M05/M06 A3039 RMK A01 T10451055  RH  093%=      5-min Rain = 0
KME1 101238Z 20005KT M05/M05 A3039 RMK A01 T10451054  RH  093%=      5-min Rain = 0
KME1 101239Z 20004KT M05/M06 A3039 RMK A01 T10451055  RH  093%=      5-min Rain = 0
KME1 101240Z 20004KT M05/M06 A3039 RMK A01 T10451055  RH  093%=      5-min Rain = 0
KME1 101241Z 20004KT M05/M06 A3039 RMK A01 T10451055  RH  093%=      5-min Rain = 0
KME1 101242Z 20004KT M05/M06 A3039 RMK A01 T10461055  RH  093%=      5-min Rain = 0
KME1 101243Z 20004KT M05/M06 A3039 RMK A01 T10461055  RH  093%=      5-min Rain = 0
KME1 101244Z 20004KT M05/M06 A3039 RMK A01 T10461056  RH  093%=      5-min Rain = 0
KME1 101245Z 20004KT M05/M06 A3039 RMK A01 T10471056  RH  093%=      5-min Rain = 0
KME1 101246Z 20004KT M05/M06 A3039 RMK A01 T10471056  RH  093%=      5-min Rain = 0
KME1 101247Z 20004KT M05/M06 A3039 RMK A01 T10471056  RH  093%=      5-min Rain = 0
KME1 101248Z 20004KT M05/M06 A3039 RMK A01 T10471056  RH  093%=      5-min Rain = 0
KME1 101249Z 20004KT M05/M06 A3039 RMK A01 T10461056  RH  093%=      5-min Rain = 0
KME1 101250Z 20004KT M05/M06 A3039 RMK A01 T10461056  RH  093%=      5-min Rain = 0
KME1 101251Z 20004KT M05/M06 A3039 RMK A01 T10461055  RH  093%=      5-min Rain = 0
KME1 101252Z 20004KT M05/M06 A3039 RMK A01 T10461056  RH  093%=      5-min Rain = 0
KME1 101253Z 20004KT M05/M06 A3039 RMK A01 T10461055  RH  093%=      5-min Rain = 0
KME1 101254Z 20004KT M05/M06 A304 RMK A01 T10461055  RH  093%=      5-min Rain = 0
KME1 101255Z 20004KT M05/M06 A304 RMK A01 T10461055  RH  093%=      5-min Rain = 0
KME1 101256Z 20004KT M05/M06 A304 RMK A01 T10461055  RH  093%=      5-min Rain = 0
KME1 101257Z 20004KT M05/M06 A304 RMK A01 T10461055  RH  093%=      5-min Rain = 0
KME1 101258Z 21004KT M05/M06 A304 RMK A01 T10461056  RH  093%=      5-min Rain = 0
KME1 101259Z 20004KT M05/M06 A304 RMK A01 T10461056  RH  093%=      5-min Rain = 0
KME1 101300Z 20004KT M05/M06 A304 RMK A01 T10461056  RH  093%=      5-min Rain = 0
KME1 101301Z 20004KT M05/M06 A304 RMK A01 T10461056  RH  093%=      5-min Rain = 0
KME1 101302Z 20004KT M05/M06 A304 RMK A01 T10461056  RH  093%=      5-min Rain = 0
KME1 101303Z 21004KT M05/M06 A304 RMK A01 T10461056  RH  093%=      5-min Rain = 0
KME1 101304Z 21004KT M05/M06 A304 RMK A01 T10461056  RH  093%=      5-min Rain = 0
KME1 101305Z 20004KT M05/M06 A304 RMK A01 T10461057  RH  093%=      5-min Rain = 0
KME1 101306Z 21004KT M05/M06 A304 RMK A01 T10461057  RH  093%=      5-min Rain = 0
KME1 101307Z 21004KT M05/M06 A304 RMK A01 T10471057  RH  092%=      5-min Rain = 0
KME1 101308Z 21004KT M05/M06 A304 RMK A01 T10461057  RH  092%=      5-min Rain = 0
KME1 101309Z 20004KT M05/M06 A304 RMK A01 T10471057  RH  093%=      5-min Rain = 0
KME1 101310Z 21004KT M05/M06 A304 RMK A01 T10461057  RH  093%=      5-min Rain = 0
KME1 101311Z 20004KT M05/M06 A304 RMK A01 T10461057  RH  092%=      5-min Rain = 0
KME1 101312Z 20003KT M05/M06 A304 RMK A01 T10471057  RH  092%=      5-min Rain = 0
KME1 101313Z 21004KT M05/M06 A304 RMK A01 T10471057  RH  092%=      5-min Rain = 0
KME1 101314Z 20003KT M05/M06 A304 RMK A01 T10471057  RH  093%=      5-min Rain = 0
KME1 101315Z 21003KT M05/M06 A304 RMK A01 T10471057  RH  093%=      5-min Rain = 0
KME1 101316Z 21003KT M05/M06 A304 RMK A01 T10471057  RH  093%=      5-min Rain = 0
KME1 101317Z 21004KT M05/M06 A304 RMK A01 T10471057  RH  093%=      5-min Rain = 0
KME1 101318Z 21003KT M05/M06 A304 RMK A01 T10471057  RH  093%=      5-min Rain = 0
KME1 101319Z 21004KT M05/M06 A304 RMK A01 T10471057  RH  093%=      5-min Rain = 0
KME1 101320Z 20004KT M05/M06 A304 RMK A01 T10471057  RH  093%=      5-min Rain = 0
KME1 101321Z 20004KT M05/M06 A304 RMK A01 T10471057  RH  093%=      5-min Rain = 0
KME1 101322Z 20004KT M05/M06 A304 RMK A01 T10471057  RH  093%=      5-min Rain = 0
KME1 101323Z 20004KT M05/M06 A304 RMK A01 T10471057  RH  093%=      5-min Rain = 0
KME1 101324Z 20004KT M05/M06 A304 RMK A01 T10471057  RH  093%=      5-min Rain = 0
KME1 101325Z 20004KT M05/M06 A304 RMK A01 T10471057  RH  093%=      5-min Rain = 0
KME1 101326Z 20004KT M05/M06 A304 RMK A01 T10471057  RH  093%=      5-min Rain = 0
KME1 101327Z 20004KT M05/M06 A304 RMK A01 T10471056  RH  093%=      5-min Rain = 0
KME1 101328Z 20004KT M05/M06 A3041 RMK A01 T10471056  RH  093%=      5-min Rain = 0
KME1 101329Z 20004KT M05/M06 A3041 RMK A01 T10461056  RH  093%=      5-min Rain = 0
KME1 101330Z 20004KT M05/M06 A3041 RMK A01 T10461056  RH  093%=      5-min Rain = 0
KME1 101331Z 20004KT M05/M06 A3041 RMK A01 T10461055  RH  093%=      5-min Rain = 0
KME1 101332Z 20003KT M05/M06 A3041 RMK A01 T10461055  RH  093%=      5-min Rain = 0
KME1 101333Z 20004KT M05/M06 A3041 RMK A01 T10461055  RH  093%=      5-min Rain = 0
KME1 101334Z 20004KT M05/M05 A3041 RMK A01 T10451054  RH  093%=      5-min Rain = 0
KME1 101335Z 20003KT M05/M05 A3041 RMK A01 T10451054  RH  093%=      5-min Rain = 0
KME1 101336Z 20003KT M05/M05 A3041 RMK A01 T10451054  RH  093%=      5-min Rain = 0
KME1 101337Z 20003KT M05/M05 A3041 RMK A01 T10451054  RH  093%=      5-min Rain = 0
KME1 101338Z 20004KT M04/M05 A3041 RMK A01 T10441054  RH  093%=      5-min Rain = 0
KME1 101339Z 20004KT M04/M05 A3041 RMK A01 T10441054  RH  093%=      5-min Rain = 0
KME1 101340Z 20004KT M04/M05 A3041 RMK A01 T10441053  RH  093%=      5-min Rain = 0
KME1 101341Z 20003KT M04/M05 A3041 RMK A01 T10441053  RH  093%=      5-min Rain = 0
KME1 101342Z 21004KT M04/M05 A3041 RMK A01 T10431053  RH  093%=      5-min Rain = 0
KME1 101343Z 21004KT M04/M05 A3041 RMK A01 T10431052  RH  093%=      5-min Rain = 0
KME1 101344Z 20004KT M04/M05 A3041 RMK A01 T10431052  RH  093%=      5-min Rain = 0
KME1 101345Z 20004KT M04/M05 A3041 RMK A01 T10431052  RH  093%=      5-min Rain = 0
KME1 101346Z 21004KT M04/M05 A3041 RMK A01 T10421052  RH  093%=      5-min Rain = 0
KME1 101347Z 20005KT M04/M05 A3041 RMK A01 T10421051  RH  093%=      5-min Rain = 0
KME1 101348Z 19005KT M04/M05 A3041 RMK A01 T10411051  RH  093%=      5-min Rain = 0
KME1 101349Z 21004KT M04/M05 A3041 RMK A01 T10411050  RH  093%=      5-min Rain = 0
KME1 101350Z 19005KT M04/M05 A3041 RMK A01 T10401050  RH  093%=      5-min Rain = 0
KME1 101351Z 20004KT M04/M05 A3041 RMK A01 T10391050  RH  093%=      5-min Rain = 0
KME1 101352Z 19004KT M04/M05 A3041 RMK A01 T10391049  RH  093%=      5-min Rain = 0
KME1 101353Z 20004KT M04/M05 A3041 RMK A01 T10391049  RH  092%=      5-min Rain = 0
KME1 101354Z 20004KT M04/M05 A3041 RMK A01 T10381049  RH  092%=      5-min Rain = 0
KME1 101355Z 20004KT M04/M05 A3041 RMK A01 T10381049  RH  092%=      5-min Rain = 0
KME1 101356Z 20004KT M04/M05 A3041 RMK A01 T10381049  RH  092%=      5-min Rain = 0
KME1 101357Z 20004KT M04/M05 A3041 RMK A01 T10371049  RH  092%=      5-min Rain = 0
KME1 101358Z 20004KT M04/M05 A3041 RMK A01 T10371048  RH  092%=      5-min Rain = 0
KME1 101359Z 21004KT M04/M05 A3041 RMK A01 T10361048  RH  092%=      5-min Rain = 0
KME1 101400Z 20004KT M04/M05 A3041 RMK A01 T10361047  RH  092%=      5-min Rain = 0
KME1 101401Z 20004KT M04/M05 A3041 RMK A01 T10351047  RH  092%=      5-min Rain = 0
KME1 101402Z 20004KT M04/M05 A3041 RMK A01 T10351047  RH  092%=      5-min Rain = 0
KME1 101403Z 21004KT M04/M05 A3041 RMK A01 T10351047  RH  091%=      5-min Rain = 0
KME1 101404Z 20004KT M03/M05 A3041 RMK A01 T10341046  RH  091%=      5-min Rain = 0
KME1 101405Z 21004KT M03/M05 A3041 RMK A01 T10341046  RH  091%=      5-min Rain = 0
KME1 101406Z 21004KT M03/M05 A3041 RMK A01 T10341046  RH  091%=      5-min Rain = 0
KME1 101407Z 21004KT M03/M05 A3041 RMK A01 T10331046  RH  091%=      5-min Rain = 0
KME1 101408Z 22004KT M03/M05 A3041 RMK A01 T10331045  RH  091%=      5-min Rain = 0
KME1 101409Z 22003KT M03/M04 A3041 RMK A01 T10321044  RH  091%=      5-min Rain = 0
KME1 101410Z 21004KT M03/M04 A3041 RMK A01 T10321044  RH  091%=      5-min Rain = 0
KME1 101411Z 21004KT M03/M04 A3041 RMK A01 T10311043  RH  091%=      5-min Rain = 0
KME1 101412Z 21004KT M03/M04 A3041 RMK A01 T10311043  RH  091%=      5-min Rain = 0
KME1 101413Z 22004KT M03/M04 A3041 RMK A01 T10301042  RH  091%=      5-min Rain = 0
KME1 101414Z 21004KT M03/M04 A3041 RMK A01 T10301042  RH  091%=      5-min Rain = 0
KME1 101415Z 20004KT M03/M04 A3041 RMK A01 T10291042  RH  091%=      5-min Rain = 0
KME1 101416Z 21004KT M03/M04 A3041 RMK A01 T10291041  RH  091%=      5-min Rain = 0
KME1 101417Z 21004KT M03/M04 A3041 RMK A01 T10281041  RH  091%=      5-min Rain = 0
KME1 101418Z 20004KT M03/M04 A3041 RMK A01 T10281041  RH  091%=      5-min Rain = 0
KME1 101419Z 20003KT M03/M04 A3041 RMK A01 T10271041  RH  091%=      5-min Rain = 0
KME1 101420Z 20003KT M03/M04 A3041 RMK A01 T10271040  RH  090%=      5-min Rain = 0
KME1 101421Z 20003KT M03/M04 A3041 RMK A01 T10261040  RH  090%=      5-min Rain = 0
KME1 101422Z 20003KT M03/M04 A3041 RMK A01 T10251040  RH  090%=      5-min Rain = 0
KME1 101423Z 20003KT M03/M04 A3041 RMK A01 T10251039  RH  090%=      5-min Rain = 0
KME1 101424Z 20003KT M02/M04 A3041 RMK A01 T10241040  RH  089%=      5-min Rain = 0
KME1 101425Z 20003KT M02/M04 A3041 RMK A01 T10241039  RH  089%=      5-min Rain = 0
KME1 101426Z 20003KT M02/M04 A3041 RMK A01 T10231038  RH  090%=      5-min Rain = 0
KME1 101427Z 20002KT M02/M04 A3041 RMK A01 T10221036  RH  090%=      5-min Rain = 0
KME1 101428Z 20003KT M02/M04 A3041 RMK A01 T10211036  RH  090%=      5-min Rain = 0
KME1 101429Z 20002KT M02/M04 A3041 RMK A01 T10211036  RH  089%=      5-min Rain = 0
KME1 101430Z 17003KT M02/M04 A3041 RMK A01 T10211036  RH  089%=      5-min Rain = 0
KME1 101431Z 21002KT M02/M04 A3041 RMK A01 T10201036  RH  089%=      5-min Rain = 0
KME1 101432Z 20002KT M02/M04 A3041 RMK A01 T10191035  RH  089%=      5-min Rain = 0
KME1 101433Z 20002KT M02/M03 A3041 RMK A01 T10181034  RH  089%=      5-min Rain = 0
KME1 101434Z 20002KT M02/M03 A3041 RMK A01 T10181034  RH  089%=      5-min Rain = 0
KME1 101435Z 21002KT M02/M03 A3041 RMK A01 T10181034  RH  089%=      5-min Rain = 0
KME1 101436Z 19003KT M02/M03 A3041 RMK A01 T10171034  RH  088%=      5-min Rain = 0
KME1 101437Z 19003KT M02/M03 A3041 RMK A01 T10171033  RH  089%=      5-min Rain = 0
KME1 101438Z 19002KT M02/M03 A3041 RMK A01 T10161032  RH  089%=      5-min Rain = 0
KME1 101439Z 21002KT M02/M03 A3042 RMK A01 T10151031  RH  089%=      5-min Rain = 0
KME1 101440Z 19003KT M01/M03 A3042 RMK A01 T10141031  RH  089%=      5-min Rain = 0
KME1 101441Z 19003KT M01/M03 A3042 RMK A01 T10141030  RH  089%=      5-min Rain = 0
KME1 101442Z 20003KT M01/M03 A3042 RMK A01 T10131029  RH  089%=      5-min Rain = 0
KME1 101443Z 20003KT M01/M03 A3042 RMK A01 T10121029  RH  089%=      5-min Rain = 0
KME1 101444Z 20003KT M01/M03 A3042 RMK A01 T10121029  RH  088%=      5-min Rain = 0
KME1 101445Z 21003KT M01/M03 A3042 RMK A01 T10121029  RH  088%=      5-min Rain = 0
KME1 101446Z 20003KT M01/M03 A3042 RMK A01 T10111029  RH  088%=      5-min Rain = 0
KME1 101447Z 19004KT M01/M03 A3042 RMK A01 T10101028  RH  088%=      5-min Rain = 0
KME1 101448Z 20002KT M01/M03 A3042 RMK A01 T10091027  RH  088%=      5-min Rain = 0
KME1 101449Z 18003KT M01/M03 A3042 RMK A01 T10091027  RH  087%=      5-min Rain = 0
KME1 101450Z 19003KT M01/M03 A3042 RMK A01 T10081026  RH  087%=      5-min Rain = 0
KME1 101451Z 19002KT M01/M03 A3042 RMK A01 T10071026  RH  087%=      5-min Rain = 0
KME1 101452Z 19003KT M01/M03 A3042 RMK A01 T10071026  RH  087%=      5-min Rain = 0
KME1 101453Z 19003KT M01/M03 A3042 RMK A01 T10061025  RH  087%=      5-min Rain = 0
KME1 101454Z 18002KT M01/M02 A3042 RMK A01 T10051024  RH  087%=      5-min Rain = 0
KME1 101455Z 18003KT M00/M02 A3042 RMK A01 T10041024  RH  086%=      5-min Rain = 0
KME1 101456Z 19003KT M00/M02 A3042 RMK A01 T10031023  RH  086%=      5-min Rain = 0
KME1 101457Z 20002KT M00/M02 A3042 RMK A01 T10021022  RH  086%=      5-min Rain = 0
KME1 101458Z 18003KT M00/M02 A3042 RMK A01 T10011022  RH  086%=      5-min Rain = 0
KME1 101459Z 20003KT M00/M02 A3042 RMK A01 T10021024  RH  085%=      5-min Rain = 0
KME1 101500Z 20003KT M00/M02 A3042 RMK A01 T10011023  RH  085%=      5-min Rain = 0
KME1 101501Z 18003KT 00/02 A3042 RMK A01 T00-00-22  RH  085%=      5-min Rain = 0
KME1 101502Z 18003KT 00/M02 A3042 RMK A01 T00021019  RH  086%=      5-min Rain = 0
KME1 101503Z 19002KT 00/M02 A3042 RMK A01 T00021019  RH  086%=      5-min Rain = 0
KME1 101504Z 18003KT 00/M02 A3042 RMK A01 T00031020  RH  085%=      5-min Rain = 0
KME1 101505Z 19003KT 00/M02 A3042 RMK A01 T00031019  RH  085%=      5-min Rain = 0
KME1 101506Z 20002KT 00/M02 A3042 RMK A01 T00041019  RH  085%=      5-min Rain = 0
KME1 101507Z 18003KT 01/M02 A3042 RMK A01 T00051018  RH  085%=      5-min Rain = 0
KME1 101508Z 17004KT 01/M02 A3042 RMK A01 T00061017  RH  085%=      5-min Rain = 0
KME1 101509Z 19004KT 01/M02 A3042 RMK A01 T00061019  RH  083%=      5-min Rain = 0
KME1 101510Z 19003KT 01/M02 A3042 RMK A01 T00061020  RH  083%=      5-min Rain = 0
KME1 101511Z 19003KT 01/M02 A3042 RMK A01 T00061018  RH  084%=      5-min Rain = 0
KME1 101512Z 19003KT 01/M02 A3042 RMK A01 T00071018  RH  083%=      5-min Rain = 0
KME1 101513Z 19003KT 01/M02 A3042 RMK A01 T00071019  RH  083%=      5-min Rain = 0
KME1 101514Z 18003KT 01/M02 A3042 RMK A01 T00071019  RH  082%=      5-min Rain = 0
KME1 101515Z 19003KT 01/M02 A3042 RMK A01 T00091017  RH  083%=      5-min Rain = 0
KME1 101516Z 19003KT 01/M02 A3042 RMK A01 T00091018  RH  082%=      5-min Rain = 0
KME1 101517Z 18003KT 01/M02 A3042 RMK A01 T00101017  RH  082%=      5-min Rain = 0
KME1 101518Z 18003KT 01/M02 A3042 RMK A01 T00111015  RH  083%=      5-min Rain = 0
KME1 101519Z 19003KT 01/M01 A3042 RMK A01 T00121014  RH  083%=      5-min Rain = 0
KME1 101520Z 18003KT 01/M01 A3042 RMK A01 T00131013  RH  082%=      5-min Rain = 0
KME1 101521Z 18003KT 01/M01 A3043 RMK A01 T00141013  RH  082%=      5-min Rain = 0
KME1 101522Z 18003KT 02/M01 A3043 RMK A01 T00151013  RH  082%=      5-min Rain = 0
KME1 101523Z 19003KT 02/M01 A3043 RMK A01 T00151013  RH  082%=      5-min Rain = 0
KME1 101524Z 18003KT 02/M01 A3043 RMK A01 T00161012  RH  082%=      5-min Rain = 0
KME1 101525Z 18003KT 02/M01 A3043 RMK A01 T00161012  RH  082%=      5-min Rain = 0
KME1 101526Z 19003KT 02/M01 A3043 RMK A01 T00171011  RH  082%=      5-min Rain = 0
KME1 101527Z 19003KT 02/M01 A3043 RMK A01 T00181009  RH  082%=      5-min Rain = 0
KME1 101528Z 19003KT 02/M01 A3043 RMK A01 T00191007  RH  083%=      5-min Rain = 0
KME1 101529Z 19003KT 02/M01 A3043 RMK A01 T00201006  RH  083%=      5-min Rain = 0
KME1 101530Z 18003KT 02/M01 A3043 RMK A01 T00211005  RH  083%=      5-min Rain = 0
KME1 101531Z 20002KT 02/M00 A3043 RMK A01 T00231004  RH  082%=      5-min Rain = 0
KME1 101532Z 17003KT 02/M01 A3043 RMK A01 T00231005  RH  082%=      5-min Rain = 0
KME1 101533Z 17002KT 03/M00 A3043 RMK A01 T00251004  RH  082%=      5-min Rain = 0
KME1 101534Z 17002KT 03/M00 A3043 RMK A01 T00261003  RH  081%=      5-min Rain = 0
KME1 101535Z 17003KT 03/00 A3043 RMK A01 T00270000  RH  082%=      5-min Rain = 0
KME1 101536Z 18003KT 03/00 A3043 RMK A01 T00290000  RH  082%=      5-min Rain = 0
KME1 101537Z 18003KT 03/00 A3043 RMK A01 T00290000  RH  081%=      5-min Rain = 0
KME1 101538Z 18003KT 03/00 A3043 RMK A01 T00300001  RH  081%=      5-min Rain = 0
KME1 101539Z 19003KT 03/00 A3043 RMK A01 T00310001  RH  081%=      5-min Rain = 0
KME1 101540Z 18003KT 03/00 A3043 RMK A01 T00310003  RH  082%=      5-min Rain = 0
KME1 101541Z 19004KT 03/00 A3043 RMK A01 T00330004  RH  082%=      5-min Rain = 0
KME1 101542Z 18003KT 03/01 A3043 RMK A01 T00330005  RH  082%=      5-min Rain = 0
KME1 101543Z 19003KT 04/01 A3043 RMK A01 T00350009  RH  083%=      5-min Rain = 0
KME1 101544Z 19003KT 04/01 A3043 RMK A01 T00380012  RH  083%=      5-min Rain = 0
KME1 101545Z 20003KT 04/01 A3043 RMK A01 T00400012  RH  082%=      5-min Rain = 0
KME1 101546Z 21003KT 04/01 A3043 RMK A01 T00410012  RH  081%=      5-min Rain = 0
KME1 101547Z 20003KT 04/01 A3043 RMK A01 T00430012  RH  080%=      5-min Rain = 0
KME1 101548Z 19003KT 04/01 A3043 RMK A01 T00440011  RH  079%=      5-min Rain = 0
KME1 101549Z 19002KT 05/01 A3043 RMK A01 T00460012  RH  078%=      5-min Rain = 0
KME1 101550Z 19003KT 05/01 A3043 RMK A01 T00470013  RH  078%=      5-min Rain = 0
KME1 101551Z 22005KT 05/01 A3043 RMK A01 T00480012  RH  077%=      5-min Rain = 0
KME1 101552Z 26007KT 05/01 A3043 RMK A01 T00500013  RH  077%=      5-min Rain = 0
KME1 101553Z 27006KT 05/01 A3043 RMK A01 T00530013  RH  075%=      5-min Rain = 0
KME1 101554Z 28006KT 06/01 A3043 RMK A01 T00560011  RH  073%=      5-min Rain = 0
KME1 101555Z 29006KT 06/01 A3043 RMK A01 T00570012  RH  072%=      5-min Rain = 0
KME1 101556Z 28004KT 06/01 A3043 RMK A01 T00580013  RH  072%=      5-min Rain = 0
KME1 101557Z 28005KT 06/01 A3043 RMK A01 T00600013  RH  072%=      5-min Rain = 0
KME1 101558Z 27004KT 06/01 A3043 RMK A01 T00610013  RH  072%=      5-min Rain = 0
KME1 101559Z 26005KT 06/01 A3043 RMK A01 T00610013  RH  071%=      5-min Rain = 0
KME1 101600Z 26007KT 06/01 A3043 RMK A01 T00630013  RH  070%=      5-min Rain = 0
KME1 101601Z 26007KT 06/01 A3043 RMK A01 T00630012  RH  070%=      5-min Rain = 0
KME1 101602Z 27008KT 06/01 A3043 RMK A01 T00640012  RH  069%=      5-min Rain = 0
KME1 101603Z 26008KT 06/01 A3043 RMK A01 T00640011  RH  069%=      5-min Rain = 0
KME1 101604Z 25007KT 06/01 A3043 RMK A01 T00640010  RH  068%=      5-min Rain = 0
KME1 101605Z 25007KT 07/01 A3043 RMK A01 T00650012  RH  069%=      5-min Rain = 0
KME1 101606Z 26007KT 07/01 A3043 RMK A01 T00660013  RH  069%=      5-min Rain = 0
KME1 101607Z 27007KT 07/01 A3043 RMK A01 T00660011  RH  068%=      5-min Rain = 0
KME1 101608Z 26004KT 07/01 A3043 RMK A01 T00670010  RH  067%=      5-min Rain = 0
KME1 101609Z 26005KT 07/01 A3043 RMK A01 T00670012  RH  068%=      5-min Rain = 0
KME1 101610Z 29005KT 07/01 A3043 RMK A01 T00680014  RH  068%=      5-min Rain = 0
KME1 101611Z 27004KT 07/01 A3044 RMK A01 T00700014  RH  068%=      5-min Rain = 0
KME1 101612Z 27005KT 07/02 A3044 RMK A01 T00710016  RH  068%=      5-min Rain = 0
KME1 101613Z 27006KT 07/02 A3043 RMK A01 T00730015  RH  067%=      5-min Rain = 0
KME1 101614Z 27006KT 07/01 A3043 RMK A01 T00730013  RH  066%=      5-min Rain = 0
KME1 101615Z 27006KT 07/01 A3043 RMK A01 T00730013  RH  066%=      5-min Rain = 0
KME1 101616Z 28007KT 07/01 A3043 RMK A01 T00730014  RH  066%=      5-min Rain = 0
KME1 101617Z 28007KT 07/01 A3043 RMK A01 T00730011  RH  065%=      5-min Rain = 0
KME1 101618Z 28006KT 07/01 A3043 RMK A01 T00730012  RH  065%=      5-min Rain = 0
KME1 101619Z 28007KT 07/01 A3043 RMK A01 T00730013  RH  066%=      5-min Rain = 0
KME1 101620Z 28006KT 07/01 A3044 RMK A01 T00740012  RH  065%=      5-min Rain = 0
KME1 101621Z 29008KT 07/01 A3044 RMK A01 T00740012  RH  064%=      5-min Rain = 0
KME1 101622Z 29007KT 07/01 A3044 RMK A01 T00740012  RH  064%=      5-min Rain = 0
KME1 101623Z 28007KT 08/01 A3044 RMK A01 T00750012  RH  065%=      5-min Rain = 0
KME1 101624Z 26006KT 08/01 A3044 RMK A01 T00760013  RH  064%=      5-min Rain = 0
KME1 101625Z 26006KT 08/01 A3044 RMK A01 T00770014  RH  065%=      5-min Rain = 0
KME1 101626Z 26008KT 08/01 A3044 RMK A01 T00780014  RH  064%=      5-min Rain = 0
KME1 101627Z 26007KT 08/01 A3044 RMK A01 T00780013  RH  063%=      5-min Rain = 0
KME1 101628Z 26006KT 08/01 A3044 RMK A01 T00780014  RH  064%=      5-min Rain = 0
KME1 101629Z 27006KT 08/02 A3044 RMK A01 T00800017  RH  064%=      5-min Rain = 0
KME1 101630Z 26006KT 08/02 A3044 RMK A01 T00810016  RH  064%=      5-min Rain = 0
KME1 101631Z 24008KT 08/02 A3044 RMK A01 T00820016  RH  063%=      5-min Rain = 0
KME1 101632Z 24008KT 08/02 A3044 RMK A01 T00820015  RH  063%=      5-min Rain = 0
KME1 101633Z 24008KT 08/02 A3044 RMK A01 T00820016  RH  063%=      5-min Rain = 0
KME1 101634Z 26009KT 08/02 A3043 RMK A01 T00830016  RH  063%=      5-min Rain = 0
KME1 101635Z 26007KT 08/01 A3043 RMK A01 T00830014  RH  062%=      5-min Rain = 0
KME1 101636Z 27005KT 08/01 A3043 RMK A01 T00820014  RH  062%=      5-min Rain = 0
KME1 101637Z 27006KT 08/01 A3043 RMK A01 T00820014  RH  062%=      5-min Rain = 0
KME1 101638Z 28005KT 08/02 A3043 RMK A01 T00820015  RH  063%=      5-min Rain = 0
KME1 101639Z 28008KT 08/02 A3043 RMK A01 T00830015  RH  062%=      5-min Rain = 0
KME1 101640Z 29008KT 08/02 A3043 RMK A01 T00830015  RH  062%=      5-min Rain = 0
KME1 101641Z 28008KT 08/01 A3043 RMK A01 T00830014  RH  062%=      5-min Rain = 0
KME1 101642Z 28007KT 08/01 A3043 RMK A01 T00830014  RH  062%=      5-min Rain = 0
KME1 101643Z 28007KT 08/02 A3043 RMK A01 T00830015  RH  062%=      5-min Rain = 0
KME1 101644Z 26007KT 08/02 A3043 RMK A01 T00830016  RH  062%=      5-min Rain = 0
KME1 101645Z 27007KT 08/02 A3043 RMK A01 T00840017  RH  063%=      5-min Rain = 0
KME1 101646Z 27008KT 09/02 A3043 RMK A01 T00850017  RH  062%=      5-min Rain = 0
KME1 101647Z 27008KT 09/02 A3043 RMK A01 T00860017  RH  062%=      5-min Rain = 0
KME1 101648Z 28007KT 09/02 A3043 RMK A01 T00860016  RH  061%=      5-min Rain = 0
KME1 101649Z 27006KT 09/02 A3043 RMK A01 T00870018  RH  062%=      5-min Rain = 0
KME1 101650Z 27008KT 09/02 A3043 RMK A01 T00880018  RH  061%=      5-min Rain = 0
KME1 101651Z 27007KT 09/02 A3043 RMK A01 T00880017  RH  061%=      5-min Rain = 0
KME1 101652Z 26006KT 09/02 A3043 RMK A01 T00880018  RH  061%=      5-min Rain = 0
KME1 101653Z 26008KT 09/02 A3043 RMK A01 T00890018  RH  061%=      5-min Rain = 0
KME1 101654Z 27009KT 09/02 A3043 RMK A01 T00890017  RH  061%=      5-min Rain = 0
KME1 101655Z 27008KT 09/02 A3043 RMK A01 T00880017  RH  061%=      5-min Rain = 0
KME1 101656Z 27008KT 09/02 A3043 RMK A01 T00880017  RH  061%=      5-min Rain = 0
KME1 101657Z 28007KT 09/02 A3043 RMK A01 T00880016  RH  061%=      5-min Rain = 0
KME1 101658Z 26008KT 09/02 A3043 RMK A01 T00890018  RH  061%=      5-min Rain = 0
KME1 101659Z 26008KT 09/02 A3043 RMK A01 T00910019  RH  061%=      5-min Rain = 0
KME1 101700Z 25009KT 09/02 A3043 RMK A01 T00910018  RH  060%=      5-min Rain = 0
KME1 101701Z 25007KT 09/02 A3043 RMK A01 T00900017  RH  060%=      5-min Rain = 0
KME1 101702Z 25009KT 09/02 A3042 RMK A01 T00900018  RH  061%=      5-min Rain = 0
KME1 101703Z 26009KT 09/02 A3042 RMK A01 T00900017  RH  060%=      5-min Rain = 0
KME1 101704Z 26009KT 09/02 A3042 RMK A01 T00910018  RH  060%=      5-min Rain = 0
KME1 101705Z 27007KT 09/02 A3042 RMK A01 T00910019  RH  060%=      5-min Rain = 0
KME1 101706Z 26010KT 09/02 A3042 RMK A01 T00920018  RH  060%=      5-min Rain = 0
KME1 101707Z 27008KT 09/02 A3042 RMK A01 T00910017  RH  060%=      5-min Rain = 0
KME1 101708Z 27007KT 09/02 A3042 RMK A01 T00910017  RH  060%=      5-min Rain = 0
KME1 101709Z 26009KT 09/02 A3042 RMK A01 T00910017  RH  060%=      5-min Rain = 0
KME1 101710Z 26008KT 09/02 A3042 RMK A01 T00910017  RH  060%=      5-min Rain = 0
KME1 101711Z 26008KT 09/02 A3042 RMK A01 T00910018  RH  060%=      5-min Rain = 0
KME1 101712Z 25007KT 09/02 A3042 RMK A01 T00910017  RH  060%=      5-min Rain = 0
KME1 101713Z 24007KT 09/02 A3042 RMK A01 T00910020  RH  061%=      5-min Rain = 0
KME1 101714Z 26007KT 09/02 A3042 RMK A01 T00940022  RH  061%=      5-min Rain = 0
KME1 101715Z 26008KT 10/02 A3042 RMK A01 T00950020  RH  059%=      5-min Rain = 0
KME1 101716Z 25008KT 09/02 A3042 RMK A01 T00940020  RH  060%=      5-min Rain = 0
KME1 101717Z 26008KT 09/02 A3042 RMK A01 T00940020  RH  060%=      5-min Rain = 0
KME1 101718Z 25006KT 09/02 A3042 RMK A01 T00940020  RH  060%=      5-min Rain = 0
KME1 101719Z 25007KT 09/02 A3042 RMK A01 T00940022  RH  061%=      5-min Rain = 0
KME1 101720Z 28006KT 10/02 A3042 RMK A01 T00950021  RH  060%=      5-min Rain = 0
KME1 101721Z 28008KT 10/02 A3042 RMK A01 T00950021  RH  060%=      5-min Rain = 0
KME1 101722Z 29007KT 10/02 A3042 RMK A01 T00970022  RH  060%=      5-min Rain = 0
KME1 101723Z 28008KT 10/02 A3042 RMK A01 T00970020  RH  059%=      5-min Rain = 0
KME1 101724Z 29006KT 10/02 A3042 RMK A01 T00960021  RH  059%=      5-min Rain = 0
KME1 101725Z 27007KT 10/02 A3042 RMK A01 T00960021  RH  059%=      5-min Rain = 0
KME1 101726Z 25008KT 10/02 A3042 RMK A01 T00970021  RH  059%=      5-min Rain = 0
KME1 101727Z 24009KT 10/02 A3042 RMK A01 T00960021  RH  059%=      5-min Rain = 0
KME1 101728Z 24008KT 10/02 A3042 RMK A01 T00960022  RH  060%=      5-min Rain = 0
KME1 101729Z 26007KT 10/02 A3042 RMK A01 T00970023  RH  060%=      5-min Rain = 0
KME1 101730Z 28007KT 10/02 A3042 RMK A01 T00990023  RH  059%=      5-min Rain = 0
KME1 101731Z 27008KT 10/02 A3042 RMK A01 T00990021  RH  058%=      5-min Rain = 0
KME1 101732Z 28006KT 10/02 A3042 RMK A01 T00980022  RH  059%=      5-min Rain = 0
KME1 101733Z 28007KT 10/03 A3041 RMK A01 T01000025  RH  060%=      5-min Rain = 0
KME1 101734Z 27008KT 10/02 A3041 RMK A01 T00990023  RH  059%=      5-min Rain = 0
KME1 101735Z 27007KT 10/02 A3041 RMK A01 T00990022  RH  059%=      5-min Rain = 0
KME1 101736Z 27009KT 10/02 A3041 RMK A01 T00980023  RH  059%=      5-min Rain = 0
KME1 101737Z 28006KT 10/02 A3041 RMK A01 T00990022  RH  059%=      5-min Rain = 0
KME1 101738Z 26007KT 10/02 A3041 RMK A01 T00990022  RH  059%=      5-min Rain = 0
KME1 101739Z 25007KT 10/02 A3041 RMK A01 T00990024  RH  060%=      5-min Rain = 0
KME1 101740Z 29007KT 10/03 A3041 RMK A01 T01020028  RH  060%=      5-min Rain = 0
KME1 101741Z 28009KT 10/03 A3041 RMK A01 T01040025  RH  058%=      5-min Rain = 0
KME1 101742Z 28006KT 10/02 A3041 RMK A01 T01020022  RH  057%=      5-min Rain = 0
KME1 101743Z 28006KT 10/02 A3041 RMK A01 T01010024  RH  059%=      5-min Rain = 0
KME1 101744Z 28007KT 10/03 A3041 RMK A01 T01020025  RH  059%=      5-min Rain = 0
KME1 101745Z 28007KT 10/03 A3041 RMK A01 T01030025  RH  058%=      5-min Rain = 0
KME1 101746Z 29008KT 10/03 A3041 RMK A01 T01030026  RH  059%=      5-min Rain = 0
KME1 101747Z 26007KT 11/03 A3041 RMK A01 T01060028  RH  059%=      5-min Rain = 0
KME1 101748Z 26007KT 11/02 A3041 RMK A01 T01060024  RH  057%=      5-min Rain = 0
KME1 101749Z 27008KT 10/02 A304 RMK A01 T01040023  RH  057%=      5-min Rain = 0
KME1 101750Z 28008KT 10/02 A304 RMK A01 T01030024  RH  058%=      5-min Rain = 0
KME1 101751Z 28007KT 10/03 A304 RMK A01 T01040025  RH  058%=      5-min Rain = 0
KME1 101752Z 29007KT 11/03 A304 RMK A01 T01050026  RH  058%=      5-min Rain = 0
KME1 101753Z 26007KT 11/03 A304 RMK A01 T01060026  RH  057%=      5-min Rain = 0
KME1 101754Z 26006KT 11/03 A304 RMK A01 T01070025  RH  057%=      5-min Rain = 0
KME1 101755Z 27005KT 11/03 A304 RMK A01 T01050025  RH  057%=      5-min Rain = 0
KME1 101756Z 30008KT 11/03 A304 RMK A01 T01060025  RH  057%=      5-min Rain = 0
KME1 101757Z 29008KT 11/03 A304 RMK A01 T01080026  RH  057%=      5-min Rain = 0
KME1 101758Z 29006KT 11/03 A304 RMK A01 T01080026  RH  057%=      5-min Rain = 0
KME1 101759Z 27008KT 11/03 A304 RMK A01 T01090027  RH  057%=      5-min Rain = 0
KME1 101800Z 26007KT 11/03 A304 RMK A01 T01090025  RH  056%=      5-min Rain = 0
KME1 101801Z 25008KT 11/02 A3039 RMK A01 T01070024  RH  057%=      5-min Rain = 0
KME1 101802Z 27010KT 11/02 A3039 RMK A01 T01060024  RH  057%=      5-min Rain = 0
KME1 101803Z 26008KT 11/02 A3039 RMK A01 T01070023  RH  056%=      5-min Rain = 0
KME1 101804Z 29006KT 11/03 A3039 RMK A01 T01070025  RH  057%=      5-min Rain = 0
KME1 101805Z 29006KT 11/03 A3039 RMK A01 T01070025  RH  057%=      5-min Rain = 0
KME1 101806Z 28009KT 11/03 A3039 RMK A01 T01090027  RH  057%=      5-min Rain = 0
KME1 101807Z 26009KT 11/03 A3039 RMK A01 T01110027  RH  056%=      5-min Rain = 0
KME1 101808Z 25007KT 11/03 A3039 RMK A01 T01110025  RH  056%=      5-min Rain = 0
KME1 101809Z 27008KT 11/03 A3039 RMK A01 T01100026  RH  056%=      5-min Rain = 0
KME1 101810Z 27007KT 11/03 A3039 RMK A01 T01100025  RH  056%=      5-min Rain = 0
KME1 101811Z 28008KT 11/03 A3039 RMK A01 T01110027  RH  056%=      5-min Rain = 0
KME1 101812Z 27007KT 11/03 A3039 RMK A01 T01110025  RH  055%=      5-min Rain = 0
KME1 101813Z 29009KT 11/03 A3039 RMK A01 T01120026  RH  056%=      5-min Rain = 0
KME1 101814Z 28008KT 11/03 A3039 RMK A01 T01120026  RH  056%=      5-min Rain = 0
KME1 101815Z 28007KT 11/03 A3039 RMK A01 T01110026  RH  056%=      5-min Rain = 0
KME1 101816Z 30007KT 11/03 A3039 RMK A01 T01110025  RH  055%=      5-min Rain = 0
KME1 101817Z 28006KT 11/03 A3039 RMK A01 T01100025  RH  055%=      5-min Rain = 0
KME1 101818Z 27008KT 11/03 A3039 RMK A01 T01100025  RH  056%=      5-min Rain = 0
KME1 101819Z 27006KT 11/03 A3039 RMK A01 T01100025  RH  056%=      5-min Rain = 0
KME1 101820Z 26009KT 11/03 A3038 RMK A01 T01110028  RH  056%=      5-min Rain = 0
KME1 101821Z 27007KT 11/03 A3038 RMK A01 T01120027  RH  056%=      5-min Rain = 0
KME1 101822Z 26004KT 11/03 A3038 RMK A01 T01120029  RH  056%=      5-min Rain = 0
KME1 101823Z 25009KT 11/03 A3038 RMK A01 T01140031  RH  057%=      5-min Rain = 0
KME1 101824Z 25009KT 12/03 A3038 RMK A01 T01150025  RH  054%=      5-min Rain = 0
KME1 101825Z 25009KT 11/02 A3038 RMK A01 T01140024  RH  054%=      5-min Rain = 0
KME1 101826Z 26006KT 11/03 A3038 RMK A01 T01130026  RH  055%=      5-min Rain = 0
KME1 101827Z 27008KT 11/03 A3038 RMK A01 T01130025  RH  055%=      5-min Rain = 0
KME1 101828Z 27008KT 11/02 A3038 RMK A01 T01120024  RH  054%=      5-min Rain = 0
KME1 101829Z 28008KT 11/03 A3038 RMK A01 T01110025  RH  055%=      5-min Rain = 0
KME1 101830Z 28007KT 11/03 A3038 RMK A01 T01120027  RH  056%=      5-min Rain = 0
KME1 101831Z 29007KT 11/03 A3038 RMK A01 T01140027  RH  055%=      5-min Rain = 0
KME1 101832Z 28007G13KT 11/03 A3038 RMK A01 T01130029  RH  056%=      5-min Rain = 0
KME1 101833Z 28006KT 12/03 A3037 RMK A01 T01160030  RH  056%=      5-min Rain = 0
KME1 101834Z 29006KT 12/03 A3037 RMK A01 T01170025  RH  053%=      5-min Rain = 0
KME1 101835Z 27004KT 12/02 A3037 RMK A01 T01150024  RH  054%=      5-min Rain = 0
KME1 101836Z 27003KT 11/03 A3037 RMK A01 T01140026  RH  055%=      5-min Rain = 0
KME1 101837Z 28005KT 12/03 A3037 RMK A01 T01160028  RH  055%=      5-min Rain = 0
KME1 101838Z 26006KT 12/03 A3037 RMK A01 T01170026  RH  054%=      5-min Rain = 0
KME1 101839Z 27008KT 12/03 A3037 RMK A01 T01170025  RH  053%=      5-min Rain = 0
KME1 101840Z 26008KT 12/03 A3037 RMK A01 T01160025  RH  053%=      5-min Rain = 0
KME1 101841Z 24007KT 12/03 A3037 RMK A01 T01160025  RH  054%=      5-min Rain = 0
KME1 101842Z 26008KT 12/03 A3037 RMK A01 T01160026  RH  054%=      5-min Rain = 0
KME1 101843Z 26006KT 12/03 A3037 RMK A01 T01170028  RH  054%=      5-min Rain = 0
KME1 101844Z 29005KT 12/03 A3037 RMK A01 T01170027  RH  054%=      5-min Rain = 0
KME1 101845Z 29003KT 12/03 A3037 RMK A01 T01170026  RH  054%=      5-min Rain = 0
KME1 101846Z 27004KT 12/03 A3037 RMK A01 T01170026  RH  053%=      5-min Rain = 0
KME1 101847Z 28006KT 12/03 A3037 RMK A01 T01180028  RH  054%=      5-min Rain = 0
KME1 101848Z 28007KT 12/03 A3037 RMK A01 T01200032  RH  055%=      5-min Rain = 0
KME1 101849Z 26007KT 12/03 A3037 RMK A01 T01220027  RH  052%=      5-min Rain = 0
KME1 101850Z 26007KT 12/03 A3037 RMK A01 T01190025  RH  052%=      5-min Rain = 0
KME1 101851Z 26010KT 12/02 A3037 RMK A01 T01180024  RH  052%=      5-min Rain = 0
KME1 101852Z 26009KT 12/02 A3037 RMK A01 T01170022  RH  052%=      5-min Rain = 0
KME1 101853Z 27009KT 12/02 A3037 RMK A01 T01160024  RH  053%=      5-min Rain = 0
KME1 101854Z 26007KT 12/02 A3037 RMK A01 T01160023  RH  052%=      5-min Rain = 0
KME1 101855Z 27004KT 12/02 A3037 RMK A01 T01170024  RH  053%=      5-min Rain = 0
KME1 101856Z 28002KT 12/02 A3037 RMK A01 T01180023  RH  052%=      5-min Rain = 0
KME1 101857Z 29005KT 12/03 A3036 RMK A01 T01190025  RH  052%=      5-min Rain = 0
KME1 101858Z 29007KT 12/03 A3036 RMK A01 T01210026  RH  052%=      5-min Rain = 0
KME1 101859Z 30006KT 12/03 A3036 RMK A01 T01200028  RH  053%=      5-min Rain = 0
KME1 101900Z 28008KT 12/03 A3036 RMK A01 T01210029  RH  053%=      5-min Rain = 0
KME1 101901Z 27008KT 12/03 A3036 RMK A01 T01210026  RH  052%=      5-min Rain = 0
KME1 101902Z 26008KT 12/02 A3036 RMK A01 T01210022  RH  051%=      5-min Rain = 0
KME1 101903Z 26007KT 12/02 A3036 RMK A01 T01200021  RH  051%=      5-min Rain = 0
KME1 101904Z 26005KT 12/02 A3036 RMK A01 T01190022  RH  051%=      5-min Rain = 0
KME1 101905Z 27005KT 12/02 A3036 RMK A01 T01190022  RH  051%=      5-min Rain = 0
KME1 101906Z 29002KT 12/02 A3036 RMK A01 T01180021  RH  051%=      5-min Rain = 0
KME1 101907Z 25004KT 12/02 A3036 RMK A01 T01180023  RH  052%=      5-min Rain = 0
KME1 101908Z 25005KT 12/03 A3036 RMK A01 T01200026  RH  053%=      5-min Rain = 0
KME1 101909Z 29007KT 12/02 A3036 RMK A01 T01210022  RH  051%=      5-min Rain = 0
KME1 101910Z 28006KT 12/02 A3036 RMK A01 T01200020  RH  050%=      5-min Rain = 0
KME1 101911Z 28006KT 12/02 A3036 RMK A01 T01200022  RH  051%=      5-min Rain = 0
KME1 101912Z 27006KT 12/02 A3036 RMK A01 T01220022  RH  051%=      5-min Rain = 0
KME1 101913Z 28004KT 12/02 A3036 RMK A01 T01220023  RH  051%=      5-min Rain = 0
KME1 101914Z 25006KT 12/02 A3036 RMK A01 T01230024  RH  051%=      5-min Rain = 0
KME1 101915Z 25008KT 12/03 A3036 RMK A01 T01240025  RH  051%=      5-min Rain = 0
KME1 101916Z 28006KT 12/02 A3036 RMK A01 T01240024  RH  050%=      5-min Rain = 0
KME1 101917Z 28004KT 12/02 A3036 RMK A01 T01240021  RH  050%=      5-min Rain = 0
KME1 101918Z 27003KT 12/02 A3036 RMK A01 T01230020  RH  049%=      5-min Rain = 0
KME1 101919Z 27006KT 12/03 A3036 RMK A01 T01230025  RH  051%=      5-min Rain = 0
KME1 101920Z 25005KT 12/03 A3036 RMK A01 T01240025  RH  051%=      5-min Rain = 0
KME1 101921Z 25003KT 13/03 A3036 RMK A01 T01250026  RH  051%=      5-min Rain = 0
KME1 101922Z 31004KT 13/03 A3036 RMK A01 T01260026  RH  050%=      5-min Rain = 0
KME1 101923Z 31005KT 13/03 A3035 RMK A01 T01270030  RH  052%=      5-min Rain = 0
KME1 101924Z 30008KT 13/03 A3035 RMK A01 T01270028  RH  051%=      5-min Rain = 0
KME1 101925Z 30007KT 13/03 A3035 RMK A01 T01260026  RH  051%=      5-min Rain = 0
KME1 101926Z 31006KT 12/03 A3035 RMK A01 T01240027  RH  052%=      5-min Rain = 0
KME1 101927Z 30008KT 13/03 A3035 RMK A01 T01250027  RH  051%=      5-min Rain = 0
KME1 101928Z 30006KT 13/03 A3035 RMK A01 T01250027  RH  051%=      5-min Rain = 0
KME1 101929Z 29006KT 13/03 A3035 RMK A01 T01250026  RH  051%=      5-min Rain = 0
KME1 101930Z 28006KT 12/03 A3035 RMK A01 T01240026  RH  051%=      5-min Rain = 0
KME1 101931Z 30007KT 12/02 A3035 RMK A01 T01240024  RH  051%=      5-min Rain = 0
KME1 101932Z 31006KT 12/03 A3035 RMK A01 T01240025  RH  051%=      5-min Rain = 0
KME1 101933Z 29007KT 13/03 A3035 RMK A01 T01250027  RH  051%=      5-min Rain = 0
KME1 101934Z 30006KT 13/02 A3035 RMK A01 T01250024  RH  050%=      5-min Rain = 0
KME1 101935Z 29005KT 12/03 A3035 RMK A01 T01240025  RH  051%=      5-min Rain = 0
KME1 101936Z 29005KT 13/03 A3035 RMK A01 T01250025  RH  051%=      5-min Rain = 0
KME1 101937Z 27004KT 13/03 A3035 RMK A01 T01260030  RH  052%=      5-min Rain = 0
KME1 101938Z 27005KT 13/03 A3034 RMK A01 T01290031  RH  051%=      5-min Rain = 0
KME1 101939Z 27008KT 13/03 A3035 RMK A01 T01310027  RH  049%=      5-min Rain = 0
KME1 101940Z 27007KT 13/03 A3034 RMK A01 T01300026  RH  049%=      5-min Rain = 0
KME1 101941Z 28006KT 13/03 A3035 RMK A01 T01290026  RH  050%=      5-min Rain = 0
KME1 101942Z 29008KT 13/02 A3035 RMK A01 T01290024  RH  049%=      5-min Rain = 0
KME1 101943Z 29008KT 13/02 A3035 RMK A01 T01280021  RH  048%=      5-min Rain = 0
KME1 101944Z 29005KT 13/02 A3035 RMK A01 T01260020  RH  048%=      5-min Rain = 0
KME1 101945Z 28005KT 13/02 A3034 RMK A01 T01250021  RH  049%=      5-min Rain = 0
KME1 101946Z 29007KT 13/03 A3034 RMK A01 T01260025  RH  050%=      5-min Rain = 0
KME1 101947Z 30009KT 13/02 A3034 RMK A01 T01280024  RH  049%=      5-min Rain = 0
KME1 101948Z 29007KT 13/02 A3034 RMK A01 T01280024  RH  049%=      5-min Rain = 0
KME1 101949Z 29006KT 13/03 A3034 RMK A01 T01280026  RH  050%=      5-min Rain = 0
KME1 101950Z 29005KT 13/03 A3034 RMK A01 T01280025  RH  050%=      5-min Rain = 0
KME1 101951Z 25005KT 13/03 A3034 RMK A01 T01270025  RH  050%=      5-min Rain = 0
KME1 101952Z 26006KT 13/02 A3034 RMK A01 T01280023  RH  049%=      5-min Rain = 0
KME1 101953Z 27007KT 13/03 A3034 RMK A01 T01290025  RH  049%=      5-min Rain = 0
KME1 101954Z 26005KT 13/02 A3034 RMK A01 T01290024  RH  049%=      5-min Rain = 0
KME1 101955Z 27003KT 13/02 A3034 RMK A01 T01280024  RH  049%=      5-min Rain = 0
KME1 101956Z 24004KT 13/03 A3034 RMK A01 T01280028  RH  050%=      5-min Rain = 0
KME1 101957Z 26003KT 13/03 A3034 RMK A01 T01310026  RH  049%=      5-min Rain = 0
KME1 101958Z 31006KT 13/03 A3034 RMK A01 T01310025  RH  049%=      5-min Rain = 0
KME1 101959Z 30009KT 13/03 A3034 RMK A01 T01310025  RH  049%=      5-min Rain = 0
KME1 102000Z 29007KT 13/03 A3034 RMK A01 T01310026  RH  049%=      5-min Rain = 0
KME1 102001Z 29006KT 13/03 A3034 RMK A01 T01320027  RH  049%=      5-min Rain = 0
KME1 102002Z 27007KT 13/03 A3034 RMK A01 T01340028  RH  049%=      5-min Rain = 0
KME1 102003Z 27007KT 14/03 A3034 RMK A01 T01350028  RH  048%=      5-min Rain = 0
KME1 102004Z 28006KT 13/02 A3034 RMK A01 T01340023  RH  047%=      5-min Rain = 0
KME1 102005Z 27003KT 13/02 A3034 RMK A01 T01310020  RH  047%=      5-min Rain = 0
KME1 102006Z 27003KT 13/02 A3034 RMK A01 T01300019  RH  047%=      5-min Rain = 0
KME1 102007Z 27004KT 13/02 A3034 RMK A01 T01290022  RH  048%=      5-min Rain = 0
KME1 102008Z 27003KT 13/02 A3033 RMK A01 T01300022  RH  048%=      5-min Rain = 0
KME1 102009Z 28006KT 13/03 A3033 RMK A01 T01320026  RH  049%=      5-min Rain = 0
KME1 102010Z 26004KT 13/02 A3033 RMK A01 T01330024  RH  048%=      5-min Rain = 0
KME1 102011Z 32003KT 13/02 A3033 RMK A01 T01320022  RH  047%=      5-min Rain = 0
KME1 102012Z 31006KT 13/02 A3033 RMK A01 T01320023  RH  048%=      5-min Rain = 0
KME1 102013Z 29004KT 13/02 A3033 RMK A01 T01330024  RH  048%=      5-min Rain = 0
KME1 102014Z 25006KT 13/03 A3033 RMK A01 T01330025  RH  048%=      5-min Rain = 0
KME1 102015Z 27005KT 14/03 A3033 RMK A01 T01350026  RH  048%=      5-min Rain = 0
KME1 102016Z 30003KT 13/03 A3033 RMK A01 T01340026  RH  048%=      5-min Rain = 0
KME1 102017Z 28004KT 14/03 A3033 RMK A01 T01350026  RH  048%=      5-min Rain = 0
KME1 102018Z 29006KT 14/03 A3033 RMK A01 T01350027  RH  048%=      5-min Rain = 0
KME1 102019Z 29007KT 14/03 A3033 RMK A01 T01360027  RH  048%=      5-min Rain = 0
KME1 102020Z 31007KT 14/02 A3033 RMK A01 T01360023  RH  047%=      5-min Rain = 0
KME1 102021Z 32005KT 13/02 A3033 RMK A01 T01330019  RH  046%=      5-min Rain = 0
KME1 102022Z 32004KT 13/02 A3033 RMK A01 T01310019  RH  047%=      5-min Rain = 0
KME1 102023Z 31004KT 13/02 A3033 RMK A01 T01310019  RH  047%=      5-min Rain = 0
KME1 102024Z 27005KT 13/02 A3033 RMK A01 T01300020  RH  047%=      5-min Rain = 0
KME1 102025Z 30003KT 13/02 A3033 RMK A01 T01310022  RH  047%=      5-min Rain = 0
KME1 102026Z 30003KT 13/02 A3033 RMK A01 T01320024  RH  048%=      5-min Rain = 0
KME1 102027Z 30005KT 13/02 A3033 RMK A01 T01330022  RH  047%=      5-min Rain = 0
KME1 102028Z 30004KT 13/02 A3033 RMK A01 T01330020  RH  046%=      5-min Rain = 0
KME1 102029Z 28004KT 13/02 A3033 RMK A01 T01330019  RH  046%=      5-min Rain = 0
KME1 102030Z 30002KT 13/02 A3033 RMK A01 T01320021  RH  047%=      5-min Rain = 0
KME1 102031Z 35003KT 13/02 A3033 RMK A01 T01330022  RH  047%=      5-min Rain = 0
KME1 102032Z 36002KT 13/02 A3033 RMK A01 T01330018  RH  046%=      5-min Rain = 0
KME1 102033Z 32001KT 13/02 A3033 RMK A01 T01330019  RH  046%=      5-min Rain = 0
KME1 102034Z 24003KT 13/02 A3033 RMK A01 T01330022  RH  047%=      5-min Rain = 0
KME1 102035Z 28004KT 14/02 A3033 RMK A01 T01360019  RH  045%=      5-min Rain = 0
KME1 102036Z 28006KT 14/02 A3033 RMK A01 T01360015  RH  044%=      5-min Rain = 0
KME1 102037Z 29006KT 14/02 A3033 RMK A01 T01350018  RH  045%=      5-min Rain = 0
KME1 102038Z 29006KT 14/02 A3033 RMK A01 T01350020  RH  046%=      5-min Rain = 0
KME1 102039Z 28005KT 13/02 A3033 RMK A01 T01340021  RH  046%=      5-min Rain = 0
KME1 102040Z 26005KT 14/02 A3033 RMK A01 T01350020  RH  046%=      5-min Rain = 0
KME1 102041Z 24003KT 14/02 A3033 RMK A01 T01350021  RH  046%=      5-min Rain = 0
KME1 102042Z 27004KT 13/02 A3033 RMK A01 T01340020  RH  046%=      5-min Rain = 0
KME1 102043Z 27005KT 14/02 A3032 RMK A01 T01350022  RH  046%=      5-min Rain = 0
KME1 102044Z 27007KT 14/02 A3032 RMK A01 T01360022  RH  046%=      5-min Rain = 0
KME1 102045Z 25005KT 14/02 A3032 RMK A01 T01360021  RH  046%=      5-min Rain = 0
KME1 102046Z 25004KT 14/02 A3032 RMK A01 T01360021  RH  045%=      5-min Rain = 0
KME1 102047Z 32004KT 14/02 A3032 RMK A01 T01370023  RH  046%=      5-min Rain = 0
KME1 102048Z 32004KT 14/02 A3032 RMK A01 T01370022  RH  046%=      5-min Rain = 0
KME1 102049Z 31002KT 14/02 A3032 RMK A01 T01360019  RH  045%=      5-min Rain = 0
KME1 102050Z 30003KT 14/02 A3032 RMK A01 T01360021  RH  046%=      5-min Rain = 0
KME1 102051Z 28005KT 14/02 A3032 RMK A01 T01370023  RH  046%=      5-min Rain = 0
KME1 102052Z 29007KT 14/02 A3032 RMK A01 T01380022  RH  045%=      5-min Rain = 0
KME1 102053Z 27006KT 14/02 A3032 RMK A01 T01380023  RH  046%=      5-min Rain = 0
KME1 102054Z 25005KT 14/02 A3032 RMK A01 T01370022  RH  046%=      5-min Rain = 0
KME1 102055Z 26006KT 14/03 A3032 RMK A01 T01370027  RH  047%=      5-min Rain = 0
KME1 102056Z 27006KT 14/02 A3032 RMK A01 T01380023  RH  046%=      5-min Rain = 0
KME1 102057Z 30005KT 14/02 A3032 RMK A01 T01380020  RH  045%=      5-min Rain = 0
KME1 102058Z 28005KT 14/02 A3032 RMK A01 T01370019  RH  045%=      5-min Rain = 0
KME1 102059Z 28004KT 14/02 A3032 RMK A01 T01360019  RH  045%=      5-min Rain = 0
KME1 102100Z 26005KT 14/02 A3032 RMK A01 T01360021  RH  046%=      5-min Rain = 0
KME1 102101Z 27005KT 14/02 A3032 RMK A01 T01370018  RH  044%=      5-min Rain = 0
KME1 102102Z 29004KT 14/02 A3032 RMK A01 T01370018  RH  045%=      5-min Rain = 0
KME1 102103Z 30006KT 14/02 A3032 RMK A01 T01370021  RH  045%=      5-min Rain = 0
KME1 102104Z 30004KT 14/02 A3032 RMK A01 T01380020  RH  045%=      5-min Rain = 0
KME1 102105Z 29003KT 14/02 A3032 RMK A01 T01380018  RH  044%=      5-min Rain = 0
KME1 102106Z 29002KT 14/02 A3032 RMK A01 T01380015  RH  043%=      5-min Rain = 0
KME1 102107Z 31006KT 14/02 A3032 RMK A01 T01370017  RH  044%=      5-min Rain = 0
KME1 102108Z 31005KT 14/02 A3032 RMK A01 T01360018  RH  045%=      5-min Rain = 0
KME1 102109Z 32005KT 14/02 A3032 RMK A01 T01360023  RH  047%=      5-min Rain = 0
KME1 102110Z 32004KT 14/02 A3032 RMK A01 T01360022  RH  046%=      5-min Rain = 0
KME1 102111Z 29003KT 14/02 A3032 RMK A01 T01360021  RH  045%=      5-min Rain = 0
KME1 102112Z 27006KT 14/03 A3032 RMK A01 T01370025  RH  047%=      5-min Rain = 0
KME1 102113Z 27007KT 14/02 A3032 RMK A01 T01380024  RH  046%=      5-min Rain = 0
KME1 102114Z 27006KT 14/02 A3032 RMK A01 T01370022  RH  046%=      5-min Rain = 0
KME1 102115Z 28005KT 14/02 A3032 RMK A01 T01360023  RH  046%=      5-min Rain = 0
KME1 102116Z 27002KT 14/03 A3032 RMK A01 T01350025  RH  047%=      5-min Rain = 0
KME1 102117Z 29002KT 14/03 A3032 RMK A01 T01350025  RH  047%=      5-min Rain = 0
KME1 102118Z 31001KT 14/02 A3032 RMK A01 T01360022  RH  046%=      5-min Rain = 0
KME1 102119Z 30003KT 14/02 A3032 RMK A01 T01360023  RH  046%=      5-min Rain = 0
KME1 102120Z 29005KT 14/02 A3032 RMK A01 T01380024  RH  046%=      5-min Rain = 0
KME1 102121Z 31005KT 14/02 A3032 RMK A01 T01380023  RH  046%=      5-min Rain = 0
KME1 102122Z 31006KT 14/02 A3032 RMK A01 T01380023  RH  046%=      5-min Rain = 0
KME1 102123Z 30005KT 14/02 A3032 RMK A01 T01370021  RH  045%=      5-min Rain = 0
KME1 102124Z 30006KT 14/02 A3032 RMK A01 T01360024  RH  046%=      5-min Rain = 0
KME1 102125Z 31006KT 14/02 A3032 RMK A01 T01370024  RH  047%=      5-min Rain = 0
KME1 102126Z 30006KT 14/02 A3032 RMK A01 T01370024  RH  046%=      5-min Rain = 0
KME1 102127Z 30006KT 14/02 A3032 RMK A01 T01370022  RH  046%=      5-min Rain = 0
KME1 102128Z 29005KT 14/02 A3032 RMK A01 T01370024  RH  046%=      5-min Rain = 0
KME1 102129Z 27005KT 14/03 A3032 RMK A01 T01370025  RH  047%=      5-min Rain = 0
KME1 102130Z 28007KT 14/03 A3032 RMK A01 T01370026  RH  047%=      5-min Rain = 0
KME1 102131Z 27006KT 14/03 A3032 RMK A01 T01370025  RH  047%=      5-min Rain = 0
KME1 102132Z 27006KT 14/02 A3032 RMK A01 T01360023  RH  046%=      5-min Rain = 0
KME1 102133Z 27004KT 14/02 A3032 RMK A01 T01350022  RH  046%=      5-min Rain = 0
KME1 102134Z 28004KT 14/02 A3032 RMK A01 T01350024  RH  047%=      5-min Rain = 0
KME1 102135Z 29005KT 14/02 A3032 RMK A01 T01350024  RH  047%=      5-min Rain = 0
KME1 102136Z 29006KT 14/02 A3032 RMK A01 T01360023  RH  046%=      5-min Rain = 0
KME1 102137Z 31007KT 14/02 A3032 RMK A01 T01360021  RH  046%=      5-min Rain = 0
KME1 102138Z 28005KT 14/02 A3032 RMK A01 T01360022  RH  046%=      5-min Rain = 0
KME1 102139Z 27005KT 14/03 A3032 RMK A01 T01360025  RH  047%=      5-min Rain = 0
KME1 102140Z 27006KT 14/02 A3032 RMK A01 T01370024  RH  046%=      5-min Rain = 0
KME1 102141Z 27005KT 14/02 A3032 RMK A01 T01370022  RH  046%=      5-min Rain = 0
KME1 102142Z 29003KT 14/02 A3032 RMK A01 T01360022  RH  046%=      5-min Rain = 0
KME1 102143Z 29004KT 14/02 A3032 RMK A01 T01360024  RH  047%=      5-min Rain = 0
KME1 102144Z 30003KT 14/02 A3032 RMK A01 T01360023  RH  046%=      5-min Rain = 0
KME1 102145Z 31004KT 14/02 A3032 RMK A01 T01360022  RH  046%=      5-min Rain = 0
KME1 102146Z 33003KT 14/02 A3032 RMK A01 T01360022  RH  046%=      5-min Rain = 0
KME1 102147Z 29001KT 14/02 A3032 RMK A01 T01360024  RH  047%=      5-min Rain = 0
KME1 102148Z 28000KT 14/02 A3032 RMK A01 T01360024  RH  047%=      5-min Rain = 0
KME1 102149Z 30002KT 14/02 A3032 RMK A01 T01380024  RH  046%=      5-min Rain = 0
KME1 102150Z 30005KT 14/03 A3032 RMK A01 T01390025  RH  046%=      5-min Rain = 0
KME1 102151Z 30005KT 14/03 A3032 RMK A01 T01390025  RH  046%=      5-min Rain = 0
KME1 102152Z 30004KT 14/02 A3032 RMK A01 T01390024  RH  046%=      5-min Rain = 0
KME1 102153Z 30004KT 14/02 A3032 RMK A01 T01380024  RH  046%=      5-min Rain = 0
KME1 102154Z 29006KT 14/03 A3032 RMK A01 T01370026  RH  047%=      5-min Rain = 0
KME1 102155Z 29005KT 14/03 A3032 RMK A01 T01370025  RH  047%=      5-min Rain = 0
KME1 102156Z 32003KT 14/03 A3032 RMK A01 T01370026  RH  047%=      5-min Rain = 0
KME1 102157Z 31004KT 14/02 A3032 RMK A01 T01370022  RH  046%=      5-min Rain = 0
KME1 102158Z 33004KT 14/02 A3032 RMK A01 T01360024  RH  047%=      5-min Rain = 0
KME1 102159Z 33003KT 14/02 A3032 RMK A01 T01360023  RH  046%=      5-min Rain = 0
KME1 102200Z 31004KT 14/02 A3032 RMK A01 T01360023  RH  046%=      5-min Rain = 0
KME1 102201Z 31005KT 14/02 A3032 RMK A01 T01360023  RH  047%=      5-min Rain = 0
KME1 102202Z 29005KT 14/02 A3032 RMK A01 T01360024  RH  047%=      5-min Rain = 0
KME1 102203Z 28003KT 14/02 A3032 RMK A01 T01370024  RH  046%=      5-min Rain = 0
KME1 102204Z 29003KT 14/03 A3032 RMK A01 T01370026  RH  047%=      5-min Rain = 0
KME1 102205Z 29002KT 14/03 A3032 RMK A01 T01370025  RH  047%=      5-min Rain = 0
KME1 102206Z 30002KT 14/02 A3032 RMK A01 T01370023  RH  046%=      5-min Rain = 0
KME1 102207Z 31003KT 14/02 A3032 RMK A01 T01380023  RH  046%=      5-min Rain = 0
KME1 102208Z 32005KT 14/02 A3032 RMK A01 T01370023  RH  046%=      5-min Rain = 0
KME1 102209Z 31004KT 14/03 A3032 RMK A01 T01370026  RH  047%=      5-min Rain = 0
KME1 102210Z 30003KT 14/03 A3032 RMK A01 T01370025  RH  047%=      5-min Rain = 0
KME1 102211Z 30003KT 14/03 A3032 RMK A01 T01360025  RH  047%=      5-min Rain = 0
KME1 102212Z 31005KT 14/02 A3032 RMK A01 T01360024  RH  047%=      5-min Rain = 0
KME1 102213Z 31005KT 14/02 A3032 RMK A01 T01350022  RH  046%=      5-min Rain = 0
KME1 102214Z 31004KT 14/02 A3032 RMK A01 T01350020  RH  046%=      5-min Rain = 0
KME1 102215Z 29002KT 13/02 A3032 RMK A01 T01340022  RH  047%=      5-min Rain = 0
KME1 102216Z 29004KT 14/03 A3032 RMK A01 T01350027  RH  048%=      5-min Rain = 0
KME1 102217Z 29003KT 14/03 A3032 RMK A01 T01360027  RH  048%=      5-min Rain = 0
KME1 102218Z 31004KT 14/03 A3032 RMK A01 T01370025  RH  047%=      5-min Rain = 0
KME1 102219Z 29004KT 14/02 A3032 RMK A01 T01360023  RH  046%=      5-min Rain = 0
KME1 102220Z 29004KT 14/03 A3032 RMK A01 T01360025  RH  047%=      5-min Rain = 0
KME1 102221Z 30005KT 14/02 A3032 RMK A01 T01360024  RH  047%=      5-min Rain = 0
KME1 102222Z 31004KT 14/02 A3032 RMK A01 T01350022  RH  046%=      5-min Rain = 0
KME1 102223Z 30003KT 13/02 A3032 RMK A01 T01340022  RH  047%=      5-min Rain = 0
KME1 102224Z 31003KT 13/02 A3032 RMK A01 T01340020  RH  046%=      5-min Rain = 0
KME1 102225Z 32004KT 13/02 A3032 RMK A01 T01330023  RH  047%=      5-min Rain = 0
KME1 102226Z 30005KT 13/02 A3032 RMK A01 T01330024  RH  048%=      5-min Rain = 0
KME1 102227Z 30005KT 13/02 A3032 RMK A01 T01330022  RH  047%=      5-min Rain = 0
KME1 102228Z 31005KT 13/02 A3032 RMK A01 T01330023  RH  047%=      5-min Rain = 0
KME1 102229Z 31004KT 13/02 A3032 RMK A01 T01330022  RH  047%=      5-min Rain = 0
KME1 102230Z 28003KT 13/02 A3032 RMK A01 T01330023  RH  047%=      5-min Rain = 0
KME1 102231Z 27005KT 13/03 A3032 RMK A01 T01330025  RH  048%=      5-min Rain = 0
KME1 102232Z 28003KT 13/02 A3032 RMK A01 T01330023  RH  047%=      5-min Rain = 0
KME1 102233Z 28004KT 13/03 A3032 RMK A01 T01340026  RH  048%=      5-min Rain = 0
KME1 102234Z 31004KT 13/03 A3032 RMK A01 T01340026  RH  048%=      5-min Rain = 0
KME1 102235Z 31003KT 13/02 A3032 RMK A01 T01340022  RH  047%=      5-min Rain = 0
KME1 102236Z 31003KT 13/02 A3032 RMK A01 T01340020  RH  046%=      5-min Rain = 0
KME1 102237Z 32002KT 13/02 A3032 RMK A01 T01330020  RH  046%=      5-min Rain = 0
KME1 102238Z 31003KT 13/02 A3032 RMK A01 T01330021  RH  046%=      5-min Rain = 0
KME1 102239Z 29002KT 13/02 A3032 RMK A01 T01340023  RH  047%=      5-min Rain = 0
KME1 102240Z 32004KT 13/02 A3032 RMK A01 T01340021  RH  046%=      5-min Rain = 0
KME1 102241Z 31004KT 13/02 A3033 RMK A01 T01340019  RH  046%=      5-min Rain = 0
KME1 102242Z 31004KT 13/02 A3033 RMK A01 T01330018  RH  046%=      5-min Rain = 0
KME1 102243Z 31003KT 13/02 A3033 RMK A01 T01320017  RH  045%=      5-min Rain = 0
KME1 102244Z 31003KT 13/02 A3033 RMK A01 T01320019  RH  046%=      5-min Rain = 0
KME1 102245Z 31003KT 13/02 A3033 RMK A01 T01320016  RH  045%=      5-min Rain = 0
KME1 102246Z 30004KT 13/02 A3033 RMK A01 T01320017  RH  045%=      5-min Rain = 0
KME1 102247Z 29004KT 13/02 A3033 RMK A01 T01320019  RH  046%=      5-min Rain = 0
KME1 102248Z 29003KT 13/02 A3033 RMK A01 T01310020  RH  047%=      5-min Rain = 0
KME1 102249Z 29003KT 13/02 A3033 RMK A01 T01310022  RH  047%=      5-min Rain = 0
KME1 102250Z 30004KT 13/02 A3033 RMK A01 T01310022  RH  047%=      5-min Rain = 0
KME1 102251Z 30004KT 13/02 A3033 RMK A01 T01310021  RH  047%=      5-min Rain = 0
KME1 102252Z 31004KT 13/02 A3033 RMK A01 T01300023  RH  048%=      5-min Rain = 0
KME1 102253Z 31004KT 13/02 A3033 RMK A01 T01300022  RH  048%=      5-min Rain = 0
KME1 102254Z 31004KT 13/02 A3033 RMK A01 T01290022  RH  048%=      5-min Rain = 0
KME1 102255Z 32003KT 13/02 A3033 RMK A01 T01280021  RH  048%=      5-min Rain = 0
KME1 102256Z 32003KT 13/02 A3033 RMK A01 T01280022  RH  048%=      5-min Rain = 0
KME1 102257Z 32003KT 13/02 A3033 RMK A01 T01280023  RH  049%=      5-min Rain = 0
KME1 102258Z 32004KT 13/02 A3033 RMK A01 T01280022  RH  049%=      5-min Rain = 0
KME1 102259Z 32004KT 13/02 A3033 RMK A01 T01280021  RH  048%=      5-min Rain = 0
KME1 102300Z 31003KT 13/02 A3033 RMK A01 T01270019  RH  048%=      5-min Rain = 0
KME1 102301Z 31003KT 13/02 A3033 RMK A01 T01270020  RH  048%=      5-min Rain = 0
KME1 102302Z 32004KT 13/02 A3033 RMK A01 T01260020  RH  048%=      5-min Rain = 0
KME1 102303Z 31003KT 13/02 A3033 RMK A01 T01250019  RH  048%=      5-min Rain = 0
KME1 102304Z 31003KT 13/02 A3033 RMK A01 T01250022  RH  049%=      5-min Rain = 0
KME1 102305Z 30004KT 12/02 A3033 RMK A01 T01240023  RH  050%=      5-min Rain = 0
KME1 102306Z 31004KT 12/02 A3033 RMK A01 T01230022  RH  050%=      5-min Rain = 0
KME1 102307Z 30004KT 12/02 A3033 RMK A01 T01220021  RH  050%=      5-min Rain = 0
KME1 102308Z 31004KT 12/02 A3033 RMK A01 T01210022  RH  051%=      5-min Rain = 0
KME1 102309Z 31003KT 12/02 A3033 RMK A01 T01210023  RH  051%=      5-min Rain = 0
KME1 102310Z 31003KT 12/02 A3033 RMK A01 T01190023  RH  052%=      5-min Rain = 0
KME1 102311Z 32004KT 12/02 A3033 RMK A01 T01180023  RH  052%=      5-min Rain = 0
KME1 102312Z 32003KT 12/02 A3033 RMK A01 T01180023  RH  052%=      5-min Rain = 0
KME1 102313Z 32003KT 12/02 A3033 RMK A01 T01170023  RH  052%=      5-min Rain = 0
KME1 102314Z 31004KT 12/02 A3033 RMK A01 T01170023  RH  052%=      5-min Rain = 0
KME1 102315Z 31004KT 12/02 A3033 RMK A01 T01160023  RH  053%=      5-min Rain = 0
KME1 102316Z 31003KT 12/02 A3033 RMK A01 T01160023  RH  053%=      5-min Rain = 0
KME1 102317Z 31004KT 12/02 A3033 RMK A01 T01150023  RH  053%=      5-min Rain = 0
KME1 102318Z 31003KT 12/02 A3033 RMK A01 T01150023  RH  053%=      5-min Rain = 0
KME1 102319Z 31004KT 11/02 A3033 RMK A01 T01140023  RH  054%=      5-min Rain = 0
KME1 102320Z 30004KT 11/02 A3033 RMK A01 T01130023  RH  054%=      5-min Rain = 0
KME1 102321Z 30004KT 11/02 A3033 RMK A01 T01120022  RH  054%=      5-min Rain = 0
KME1 102322Z 31004KT 11/02 A3033 RMK A01 T01110023  RH  054%=      5-min Rain = 0
KME1 102323Z 31004KT 11/02 A3033 RMK A01 T01100022  RH  055%=      5-min Rain = 0
KME1 102324Z 31004KT 11/02 A3033 RMK A01 T01090022  RH  055%=      5-min Rain = 0
KME1 102325Z 31004KT 11/02 A3033 RMK A01 T01090022  RH  055%=      5-min Rain = 0
KME1 102326Z 31003KT 11/02 A3033 RMK A01 T01080022  RH  055%=      5-min Rain = 0
KME1 102327Z 31003KT 11/02 A3033 RMK A01 T01080021  RH  055%=      5-min Rain = 0
KME1 102328Z 32003KT 11/02 A3033 RMK A01 T01080021  RH  055%=      5-min Rain = 0
KME1 102329Z 32003KT 11/02 A3033 RMK A01 T01080021  RH  055%=      5-min Rain = 0
KME1 102330Z 32003KT 11/02 A3033 RMK A01 T01080021  RH  055%=      5-min Rain = 0
KME1 102331Z 32003KT 11/02 A3033 RMK A01 T01070021  RH  055%=      5-min Rain = 0
KME1 102332Z 32003KT 11/02 A3033 RMK A01 T01070021  RH  056%=      5-min Rain = 0
KME1 102333Z 32003KT 11/02 A3033 RMK A01 T01060022  RH  056%=      5-min Rain = 0
KME1 102334Z 32003KT 10/02 A3033 RMK A01 T01040022  RH  056%=      5-min Rain = 0
KME1 102335Z 32003KT 10/02 A3033 RMK A01 T01030022  RH  057%=      5-min Rain = 0
KME1 102336Z 32003KT 10/02 A3033 RMK A01 T01020023  RH  058%=      5-min Rain = 0
KME1 102337Z 31003KT 10/02 A3033 RMK A01 T01000023  RH  059%=      5-min Rain = 0
KME1 102338Z 31003KT 10/02 A3033 RMK A01 T00990024  RH  060%=      5-min Rain = 0
KME1 102339Z 31004KT 10/02 A3033 RMK A01 T00980024  RH  060%=      5-min Rain = 0
KME1 102340Z 32004KT 10/02 A3033 RMK A01 T00970023  RH  060%=      5-min Rain = 0
KME1 102341Z 32003KT 10/02 A3033 RMK A01 T00960022  RH  060%=      5-min Rain = 0
KME1 102342Z 31003KT 10/02 A3033 RMK A01 T00960023  RH  060%=      5-min Rain = 0
KME1 102343Z 31003KT 10/02 A3033 RMK A01 T00960023  RH  060%=      5-min Rain = 0
KME1 102344Z 32003KT 10/02 A3033 RMK A01 T00950023  RH  061%=      5-min Rain = 0
KME1 102345Z 32003KT 09/02 A3033 RMK A01 T00940023  RH  061%=      5-min Rain = 0
KME1 102346Z 32004KT 09/02 A3033 RMK A01 T00940024  RH  062%=      5-min Rain = 0
KME1 102347Z 31004KT 09/02 A3033 RMK A01 T00930024  RH  062%=      5-min Rain = 0
KME1 102348Z 31004KT 09/03 A3034 RMK A01 T00930026  RH  063%=      5-min Rain = 0
KME1 102349Z 31004KT 09/03 A3034 RMK A01 T00910026  RH  064%=      5-min Rain = 0
KME1 102350Z 31004KT 09/03 A3034 RMK A01 T00910026  RH  064%=      5-min Rain = 0
KME1 102351Z 31004KT 09/03 A3034 RMK A01 T00900025  RH  064%=      5-min Rain = 0
KME1 102352Z 31004KT 09/02 A3034 RMK A01 T00890024  RH  064%=      5-min Rain = 0
KME1 102353Z 31005KT 09/02 A3034 RMK A01 T00880024  RH  064%=      5-min Rain = 0
KME1 102354Z 31005KT 09/02 A3034 RMK A01 T00880024  RH  064%=      5-min Rain = 0
KME1 102355Z 31005KT 09/02 A3034 RMK A01 T00870024  RH  065%=      5-min Rain = 0
KME1 102356Z 31004KT 09/02 A3034 RMK A01 T00860024  RH  065%=      5-min Rain = 0
KME1 102357Z 31004KT 08/03 A3034 RMK A01 T00840025  RH  066%=      5-min Rain = 0
KME1 102358Z 31004KT 08/03 A3034 RMK A01 T00840025  RH  067%=      5-min Rain = 0
KME1 102359Z 31004KT 08/03 A3034 RMK A01 T00820025  RH  067%=      5-min Rain = 0
KME1 110000Z 31004KT 08/03 A3034 RMK A01 T00820025  RH  068%=      5-min Rain = 0
KME1 110001Z 31004KT 08/03 A3034 RMK A01 T00810025  RH  068%=      5-min Rain = 0
KME1 110002Z 31004KT 08/03 A3034 RMK A01 T00810025  RH  068%=      5-min Rain = 0
KME1 110003Z 31004KT 08/02 A3034 RMK A01 T00810024  RH  068%=      5-min Rain = 0
KME1 110004Z 31004KT 08/02 A3034 RMK A01 T00800024  RH  068%=      5-min Rain = 0
KME1 110005Z 31004KT 08/02 A3034 RMK A01 T00790023  RH  068%=      5-min Rain = 0
KME1 110006Z 31004KT 08/02 A3034 RMK A01 T00790023  RH  068%=      5-min Rain = 0
KME1 110007Z 31004KT 08/02 A3033 RMK A01 T00790024  RH  068%=      5-min Rain = 0
KME1 110008Z 31004KT 08/02 A3033 RMK A01 T00780023  RH  068%=      5-min Rain = 0
KME1 110009Z 31004KT 08/02 A3033 RMK A01 T00790023  RH  068%=      5-min Rain = 0
KME1 110010Z 31004KT 08/02 A3033 RMK A01 T00790023  RH  068%=      5-min Rain = 0
KME1 110011Z 31004KT 08/02 A3033 RMK A01 T00790023  RH  068%=      5-min Rain = 0
KME1 110012Z 31004KT 08/02 A3033 RMK A01 T00780023  RH  068%=      5-min Rain = 0
KME1 110013Z 31004KT 08/02 A3033 RMK A01 T00760023  RH  069%=      5-min Rain = 0
KME1 110014Z 31004KT 07/02 A3034 RMK A01 T00740022  RH  070%=      5-min Rain = 0
KME1 110015Z 31004KT 07/02 A3034 RMK A01 T00730022  RH  070%=      5-min Rain = 0
KME1 110016Z 31003KT 07/02 A3034 RMK A01 T00710022  RH  071%=      5-min Rain = 0
KME1 110017Z 31003KT 07/02 A3033 RMK A01 T00700022  RH  071%=      5-min Rain = 0
KME1 110018Z 31003KT 07/02 A3033 RMK A01 T00690022  RH  072%=      5-min Rain = 0
KME1 110019Z 31003KT 07/02 A3033 RMK A01 T00680024  RH  073%=      5-min Rain = 0
KME1 110020Z 31003KT 07/03 A3033 RMK A01 T00660025  RH  075%=      5-min Rain = 0
KME1 110021Z 31003KT 07/02 A3033 RMK A01 T00650024  RH  075%=      5-min Rain = 0
KME1 110022Z 31003KT 06/03 A3033 RMK A01 T00630025  RH  077%=      5-min Rain = 0
KME1 110023Z 32003KT 06/03 A3033 RMK A01 T00620026  RH  078%=      5-min Rain = 0
KME1 110024Z 32003KT 06/03 A3034 RMK A01 T00600027  RH  079%=      5-min Rain = 0
KME1 110025Z 32002KT 06/03 A3034 RMK A01 T00590027  RH  080%=      5-min Rain = 0
KME1 110026Z 32002KT 06/03 A3034 RMK A01 T00580026  RH  080%=      5-min Rain = 0
KME1 110027Z 32002KT 06/03 A3034 RMK A01 T00580026  RH  080%=      5-min Rain = 0
KME1 110028Z 32002KT 06/03 A3034 RMK A01 T00580025  RH  080%=      5-min Rain = 0
KME1 110029Z 32002KT 06/03 A3034 RMK A01 T00580025  RH  079%=      5-min Rain = 0
KME1 110030Z 31002KT 06/03 A3034 RMK A01 T00590025  RH  079%=      5-min Rain = 0
KME1 110031Z 30002KT 06/03 A3034 RMK A01 T00590027  RH  080%=      5-min Rain = 0
KME1 110032Z 29001KT 06/03 A3034 RMK A01 T00590027  RH  080%=      5-min Rain = 0
KME1 110033Z 29002KT 06/03 A3034 RMK A01 T00580026  RH  080%=      5-min Rain = 0
KME1 110034Z 29002KT 06/03 A3034 RMK A01 T00580025  RH  079%=      5-min Rain = 0
KME1 110035Z 29002KT 06/03 A3034 RMK A01 T00580025  RH  079%=      5-min Rain = 0
KME1 110036Z 29002KT 06/02 A3034 RMK A01 T00570024  RH  079%=      5-min Rain = 0
KME1 110037Z 29003KT 06/02 A3034 RMK A01 T00570024  RH  079%=      5-min Rain = 0
KME1 110038Z 30003KT 06/02 A3034 RMK A01 T00580023  RH  079%=      5-min Rain = 0
KME1 110039Z 30003KT 06/02 A3034 RMK A01 T00580023  RH  078%=      5-min Rain = 0
KME1 110040Z 30004KT 06/02 A3034 RMK A01 T00570022  RH  078%=      5-min Rain = 0
KME1 110041Z 30004KT 06/02 A3034 RMK A01 T00550020  RH  078%=      5-min Rain = 0
KME1 110042Z 30004KT 05/02 A3034 RMK A01 T00530019  RH  079%=      5-min Rain = 0
KME1 110043Z 29003KT 05/02 A3034 RMK A01 T00510018  RH  079%=      5-min Rain = 0
KME1 110044Z 29003KT 05/02 A3034 RMK A01 T00480018  RH  081%=      5-min Rain = 0
KME1 110045Z 29002KT 05/02 A3034 RMK A01 T00460018  RH  082%=      5-min Rain = 0
KME1 110046Z 28002KT 04/02 A3034 RMK A01 T00440018  RH  083%=      5-min Rain = 0
KME1 110047Z 28001KT 04/02 A3034 RMK A01 T00430018  RH  083%=      5-min Rain = 0
KME1 110048Z 28001KT 04/02 A3034 RMK A01 T00430018  RH  084%=      5-min Rain = 0
KME1 110049Z 28001KT 04/02 A3034 RMK A01 T00440019  RH  084%=      5-min Rain = 0
KME1 110050Z 26000KT 05/02 A3034 RMK A01 T00450019  RH  083%=      5-min Rain = 0
KME1 110051Z 25000KT 05/02 A3034 RMK A01 T00460018  RH  082%=      5-min Rain = 0
KME1 110052Z 28000KT 04/02 A3034 RMK A01 T00440018  RH  083%=      5-min Rain = 0
KME1 110053Z 26000KT 04/02 A3034 RMK A01 T00430017  RH  083%=      5-min Rain = 0
KME1 110054Z 22000KT 04/02 A3034 RMK A01 T00410017  RH  084%=      5-min Rain = 0
KME1 110055Z 27000KT 04/02 A3034 RMK A01 T00410017  RH  085%=      5-min Rain = 0
KME1 110056Z 24001KT 04/02 A3034 RMK A01 T00400018  RH  085%=      5-min Rain = 0
KME1 110057Z 23001KT 04/02 A3034 RMK A01 T00400018  RH  085%=      5-min Rain = 0
KME1 110058Z 25001KT 04/02 A3034 RMK A01 T00400018  RH  086%=      5-min Rain = 0
KME1 110059Z 26000KT 04/02 A3034 RMK A01 T00400019  RH  086%=      5-min Rain = 0
KME1 110100Z 27000KT 04/02 A3034 RMK A01 T00410019  RH  085%=      5-min Rain = 0
KME1 110101Z 28000KT 04/02 A3034 RMK A01 T00410018  RH  085%=      5-min Rain = 0
KME1 110102Z 28000KT 04/02 A3034 RMK A01 T00390017  RH  085%=      5-min Rain = 0
KME1 110103Z 28000KT 04/02 A3034 RMK A01 T00390017  RH  085%=      5-min Rain = 0
KME1 110104Z 28000KT 04/02 A3034 RMK A01 T00380016  RH  086%=      5-min Rain = 0
KME1 110105Z 30000KT 04/02 A3034 RMK A01 T00370016  RH  086%=      5-min Rain = 0
KME1 110106Z 00000KT 04/02 A3034 RMK A01 T00360016  RH  086%=      5-min Rain = 0
KME1 110107Z 00000KT 04/02 A3034 RMK A01 T00360016  RH  087%=      5-min Rain = 0
KME1 110108Z 00000KT 04/02 A3034 RMK A01 T00360016  RH  087%=      5-min Rain = 0
KME1 110109Z 00000KT 04/02 A3034 RMK A01 T00350016  RH  087%=      5-min Rain = 0
KME1 110110Z 17000KT 04/02 A3034 RMK A01 T00350016  RH  088%=      5-min Rain = 0
KME1 110111Z 20000KT 03/02 A3034 RMK A01 T00340016  RH  088%=      5-min Rain = 0
KME1 110112Z 21001KT 03/02 A3034 RMK A01 T00340017  RH  088%=      5-min Rain = 0
KME1 110113Z 20001KT 03/02 A3034 RMK A01 T00340017  RH  088%=      5-min Rain = 0
KME1 110114Z 21000KT 03/02 A3034 RMK A01 T00340017  RH  089%=      5-min Rain = 0
KME1 110115Z 26000KT 03/02 A3034 RMK A01 T00330017  RH  089%=      5-min Rain = 0
KME1 110116Z 18000KT 03/02 A3034 RMK A01 T00330017  RH  089%=      5-min Rain = 0
KME1 110117Z 20000KT 03/02 A3034 RMK A01 T00330017  RH  089%=      5-min Rain = 0
KME1 110118Z 20000KT 03/02 A3034 RMK A01 T00330018  RH  089%=      5-min Rain = 0
KME1 110119Z 18001KT 03/02 A3034 RMK A01 T00330018  RH  089%=      5-min Rain = 0
KME1 110120Z 17002KT 03/02 A3034 RMK A01 T00330017  RH  089%=      5-min Rain = 0
KME1 110121Z 17002KT 03/02 A3034 RMK A01 T00320017  RH  089%=      5-min Rain = 0
KME1 110122Z 16002KT 03/02 A3034 RMK A01 T00320016  RH  090%=      5-min Rain = 0
KME1 110123Z 17001KT 03/02 A3034 RMK A01 T00320016  RH  090%=      5-min Rain = 0
KME1 110124Z 18001KT 03/02 A3034 RMK A01 T00310016  RH  090%=      5-min Rain = 0
KME1 110125Z 18002KT 03/02 A3035 RMK A01 T00310016  RH  090%=      5-min Rain = 0
KME1 110126Z 19001KT 03/02 A3035 RMK A01 T00310016  RH  090%=      5-min Rain = 0
KME1 110127Z 19002KT 03/02 A3035 RMK A01 T00300016  RH  090%=      5-min Rain = 0
KME1 110128Z 19002KT 03/02 A3035 RMK A01 T00300016  RH  091%=      5-min Rain = 0
KME1 110129Z 19002KT 03/02 A3035 RMK A01 T00310016  RH  090%=      5-min Rain = 0
KME1 110130Z 19001KT 03/02 A3035 RMK A01 T00310016  RH  090%=      5-min Rain = 0
KME1 110131Z 18001KT 03/02 A3035 RMK A01 T00310016  RH  090%=      5-min Rain = 0
KME1 110132Z 17001KT 03/02 A3035 RMK A01 T00300015  RH  090%=      5-min Rain = 0
KME1 110133Z 17001KT 03/02 A3035 RMK A01 T00300015  RH  090%=      5-min Rain = 0
KME1 110134Z 17001KT 03/01 A3035 RMK A01 T00290014  RH  090%=      5-min Rain = 0
KME1 110135Z 16001KT 03/01 A3035 RMK A01 T00280013  RH  090%=      5-min Rain = 0
KME1 110136Z 17001KT 03/01 A3035 RMK A01 T00270014  RH  091%=      5-min Rain = 0
KME1 110137Z 18002KT 03/02 A3035 RMK A01 T00280016  RH  092%=      5-min Rain = 0
KME1 110138Z 18002KT 03/02 A3035 RMK A01 T00290017  RH  092%=      5-min Rain = 0
KME1 110139Z 18002KT 03/02 A3035 RMK A01 T00300017  RH  092%=      5-min Rain = 0
KME1 110140Z 19002KT 03/02 A3035 RMK A01 T00310018  RH  091%=      5-min Rain = 0
KME1 110141Z 20001KT 03/02 A3035 RMK A01 T00310017  RH  090%=      5-min Rain = 0
KME1 110142Z 18003KT 03/02 A3035 RMK A01 T00310017  RH  090%=      5-min Rain = 0
KME1 110143Z 18002KT 03/02 A3035 RMK A01 T00330017  RH  090%=      5-min Rain = 0
KME1 110144Z 18003KT 03/02 A3035 RMK A01 T00330016  RH  089%=      5-min Rain = 0
KME1 110145Z 18003KT 03/01 A3035 RMK A01 T00320014  RH  088%=      5-min Rain = 0
KME1 110146Z 18003KT 03/01 A3035 RMK A01 T00310013  RH  088%=      5-min Rain = 0
KME1 110147Z 19003KT 03/01 A3035 RMK A01 T00300012  RH  088%=      5-min Rain = 0
KME1 110148Z 20003KT 03/01 A3035 RMK A01 T00290012  RH  089%=      5-min Rain = 0
KME1 110149Z 19004KT 03/01 A3035 RMK A01 T00290014  RH  090%=      5-min Rain = 0
KME1 110150Z 20004KT 03/01 A3035 RMK A01 T00290014  RH  090%=      5-min Rain = 0
KME1 110151Z 20004KT 03/01 A3035 RMK A01 T00290014  RH  090%=      5-min Rain = 0
KME1 110152Z 20004KT 03/02 A3035 RMK A01 T00290015  RH  090%=      5-min Rain = 0
KME1 110153Z 20004KT 03/02 A3035 RMK A01 T00290015  RH  091%=      5-min Rain = 0
KME1 110154Z 20004KT 03/02 A3035 RMK A01 T00290015  RH  091%=      5-min Rain = 0
KME1 110155Z 20005KT 03/02 A3035 RMK A01 T00290015  RH  091%=      5-min Rain = 0
KME1 110156Z 21005KT 03/02 A3035 RMK A01 T00300016  RH  091%=      5-min Rain = 0
KME1 110157Z 21005KT 03/02 A3035 RMK A01 T00300016  RH  091%=      5-min Rain = 0
KME1 110158Z 20005KT 03/02 A3035 RMK A01 T00300016  RH  091%=      5-min Rain = 0
KME1 110159Z 21005KT 03/02 A3035 RMK A01 T00310017  RH  091%=      5-min Rain = 0
KME1 110200Z 21005KT 03/02 A3035 RMK A01 T00320018  RH  091%=      5-min Rain = 0
KME1 110201Z 20005KT 03/02 A3035 RMK A01 T00320018  RH  090%=      5-min Rain = 0
KME1 110202Z 21005KT 03/02 A3035 RMK A01 T00330017  RH  090%=      5-min Rain = 0
KME1 110203Z 20005KT 03/02 A3035 RMK A01 T00330017  RH  090%=      5-min Rain = 0
KME1 110204Z 21005KT 03/02 A3035 RMK A01 T00330017  RH  089%=      5-min Rain = 0
KME1 110205Z 21005KT 03/02 A3035 RMK A01 T00330017  RH  089%=      5-min Rain = 0
KME1 110206Z 20005KT 03/02 A3035 RMK A01 T00330017  RH  089%=      5-min Rain = 0
KME1 110207Z 20004KT 03/02 A3035 RMK A01 T00330017  RH  089%=      5-min Rain = 0
KME1 110208Z 20004KT 03/02 A3035 RMK A01 T00320016  RH  089%=      5-min Rain = 0
KME1 110209Z 19004KT 03/02 A3035 RMK A01 T00320017  RH  089%=      5-min Rain = 0
KME1 110210Z 20003KT 03/02 A3035 RMK A01 T00320016  RH  089%=      5-min Rain = 0
KME1 110211Z 20003KT 03/02 A3035 RMK A01 T00310015  RH  089%=      5-min Rain = 0
KME1 110212Z 20002KT 03/02 A3035 RMK A01 T00310015  RH  089%=      5-min Rain = 0
KME1 110213Z 20002KT 03/02 A3035 RMK A01 T00310015  RH  089%=      5-min Rain = 0
KME1 110214Z 20003KT 03/02 A3035 RMK A01 T00300015  RH  090%=      5-min Rain = 0
KME1 110215Z 20003KT 03/02 A3035 RMK A01 T00290015  RH  090%=      5-min Rain = 0
KME1 110216Z 20003KT 03/02 A3036 RMK A01 T00290015  RH  091%=      5-min Rain = 0
KME1 110217Z 20004KT 03/02 A3036 RMK A01 T00290016  RH  091%=      5-min Rain = 0
KME1 110218Z 20004KT 03/02 A3036 RMK A01 T00300017  RH  091%=      5-min Rain = 0
KME1 110219Z 21004KT 03/02 A3036 RMK A01 T00310017  RH  091%=      5-min Rain = 0
KME1 110220Z 21004KT 03/02 A3036 RMK A01 T00310017  RH  090%=      5-min Rain = 0
KME1 110221Z 21004KT 03/02 A3036 RMK A01 T00310016  RH  090%=      5-min Rain = 0
KME1 110222Z 21004KT 03/02 A3036 RMK A01 T00310015  RH  089%=      5-min Rain = 0
KME1 110223Z 21004KT 03/01 A3036 RMK A01 T00300014  RH  089%=      5-min Rain = 0
KME1 110224Z 21004KT 03/01 A3036 RMK A01 T00290013  RH  090%=      5-min Rain = 0
KME1 110225Z 21005KT 03/01 A3036 RMK A01 T00280013  RH  090%=      5-min Rain = 0
KME1 110226Z 20005KT 03/01 A3036 RMK A01 T00280014  RH  091%=      5-min Rain = 0
KME1 110227Z 20005KT 03/01 A3036 RMK A01 T00270014  RH  091%=      5-min Rain = 0
KME1 110228Z 20004KT 03/02 A3036 RMK A01 T00270015  RH  091%=      5-min Rain = 0
KME1 110229Z 20004KT 03/01 A3036 RMK A01 T00270014  RH  091%=      5-min Rain = 0
KME1 110230Z 20004KT 03/02 A3036 RMK A01 T00270015  RH  092%=      5-min Rain = 0
KME1 110231Z 20004KT 03/02 A3036 RMK A01 T00270015  RH  092%=      5-min Rain = 0
KME1 110232Z 20003KT 03/02 A3036 RMK A01 T00270015  RH  092%=      5-min Rain = 0
KME1 110233Z 20003KT 03/02 A3036 RMK A01 T00260015  RH  092%=      5-min Rain = 0
KME1 110234Z 19003KT 03/01 A3036 RMK A01 T00250014  RH  092%=      5-min Rain = 0
KME1 110235Z 20003KT 03/01 A3036 RMK A01 T00250014  RH  092%=      5-min Rain = 0
KME1 110236Z 20003KT 03/01 A3036 RMK A01 T00250014  RH  092%=      5-min Rain = 0
KME1 110237Z 20003KT 03/01 A3036 RMK A01 T00250014  RH  093%=      5-min Rain = 0
KME1 110238Z 20003KT 03/01 A3036 RMK A01 T00250014  RH  093%=      5-min Rain = 0
KME1 110239Z 21003KT 03/01 A3036 RMK A01 T00250014  RH  093%=      5-min Rain = 0
KME1 110240Z 21004KT 03/01 A3036 RMK A01 T00250014  RH  093%=      5-min Rain = 0
KME1 110241Z 21004KT 02/01 A3036 RMK A01 T00240014  RH  093%=      5-min Rain = 0
KME1 110242Z 21004KT 02/01 A3036 RMK A01 T00240014  RH  093%=      5-min Rain = 0
KME1 110243Z 21004KT 03/02 A3036 RMK A01 T00250015  RH  093%=      5-min Rain = 0
KME1 110244Z 21004KT 02/01 A3036 RMK A01 T00240014  RH  093%=      5-min Rain = 0
KME1 110245Z 21004KT 02/01 A3036 RMK A01 T00240014  RH  093%=      5-min Rain = 0
KME1 110246Z 21004KT 02/02 A3036 RMK A01 T00240015  RH  093%=      5-min Rain = 0
KME1 110247Z 21004KT 02/02 A3036 RMK A01 T00240015  RH  093%=      5-min Rain = 0
KME1 110248Z 21003KT 02/02 A3036 RMK A01 T00240015  RH  094%=      5-min Rain = 0
KME1 110249Z 21003KT 02/02 A3036 RMK A01 T00240015  RH  093%=      5-min Rain = 0
KME1 110250Z 21003KT 02/01 A3036 RMK A01 T00240014  RH  093%=      5-min Rain = 0
KME1 110251Z 21003KT 02/01 A3036 RMK A01 T00240014  RH  094%=      5-min Rain = 0
KME1 110252Z 21002KT 02/02 A3036 RMK A01 T00240015  RH  093%=      5-min Rain = 0
KME1 110253Z 21002KT 02/01 A3036 RMK A01 T00230014  RH  093%=      5-min Rain = 0
KME1 110254Z 20002KT 02/01 A3036 RMK A01 T00230013  RH  093%=      5-min Rain = 0
KME1 110255Z 21002KT 02/01 A3036 RMK A01 T00220012  RH  093%=      5-min Rain = 0
KME1 110256Z 21002KT 02/01 A3036 RMK A01 T00220012  RH  093%=      5-min Rain = 0
KME1 110257Z 21002KT 02/01 A3036 RMK A01 T00210012  RH  094%=      5-min Rain = 0
KME1 110258Z 21002KT 02/01 A3036 RMK A01 T00220013  RH  094%=      5-min Rain = 0
KME1 110259Z 21003KT 02/01 A3036 RMK A01 T00210012  RH  094%=      5-min Rain = 0
KME1 110300Z 21003KT 02/01 A3036 RMK A01 T00210012  RH  094%=      5-min Rain = 0
KME1 110301Z 21003KT 02/01 A3036 RMK A01 T00210013  RH  094%=      5-min Rain = 0
KME1 110302Z 21003KT 02/01 A3036 RMK A01 T00210013  RH  094%=      5-min Rain = 0
KME1 110303Z 20003KT 02/01 A3036 RMK A01 T00210014  RH  095%=      5-min Rain = 0
KME1 110304Z 20003KT 02/02 A3036 RMK A01 T00220015  RH  095%=      5-min Rain = 0
KME1 110305Z 20003KT 02/01 A3036 RMK A01 T00220014  RH  095%=      5-min Rain = 0
KME1 110306Z 20003KT 02/01 A3036 RMK A01 T00220014  RH  094%=      5-min Rain = 0
KME1 110307Z 21002KT 02/01 A3036 RMK A01 T00210013  RH  094%=      5-min Rain = 0
KME1 110308Z 21002KT 02/01 A3036 RMK A01 T00210012  RH  094%=      5-min Rain = 0
KME1 110309Z 21002KT 02/01 A3036 RMK A01 T00210013  RH  094%=      5-min Rain = 0
KME1 110310Z 21002KT 02/01 A3036 RMK A01 T00210013  RH  094%=      5-min Rain = 0
KME1 110311Z 20002KT 02/01 A3036 RMK A01 T00200012  RH  094%=      5-min Rain = 0
KME1 110312Z 19002KT 02/01 A3036 RMK A01 T00200011  RH  094%=      5-min Rain = 0
KME1 110313Z 18003KT 02/01 A3036 RMK A01 T00190010  RH  094%=      5-min Rain = 0
KME1 110314Z 18004KT 02/01 A3036 RMK A01 T00180009  RH  094%=      5-min Rain = 0
KME1 110315Z 19005KT 02/01 A3036 RMK A01 T00180009  RH  094%=      5-min Rain = 0
KME1 110316Z 19004KT 02/01 A3036 RMK A01 T00180010  RH  095%=      5-min Rain = 0
KME1 110317Z 20004KT 02/01 A3036 RMK A01 T00190012  RH  095%=      5-min Rain = 0
KME1 110318Z 20004KT 02/01 A3036 RMK A01 T00190013  RH  096%=      5-min Rain = 0
KME1 110319Z 20004KT 02/01 A3036 RMK A01 T00190013  RH  095%=      5-min Rain = 0
KME1 110320Z 20004KT 02/01 A3036 RMK A01 T00190012  RH  095%=      5-min Rain = 0
KME1 110321Z 21004KT 02/01 A3036 RMK A01 T00190011  RH  094%=      5-min Rain = 0
KME1 110322Z 21004KT 02/01 A3036 RMK A01 T00180010  RH  094%=      5-min Rain = 0
KME1 110323Z 21004KT 02/01 A3036 RMK A01 T00180010  RH  094%=      5-min Rain = 0
KME1 110324Z 21004KT 02/01 A3036 RMK A01 T00180010  RH  095%=      5-min Rain = 0
KME1 110325Z 21004KT 02/01 A3036 RMK A01 T00180010  RH  095%=      5-min Rain = 0
KME1 110326Z 21005KT 02/01 A3036 RMK A01 T00180010  RH  095%=      5-min Rain = 0
KME1 110327Z 21005KT 02/01 A3036 RMK A01 T00170010  RH  095%=      5-min Rain = 0
KME1 110328Z 22004KT 02/01 A3036 RMK A01 T00170010  RH  095%=      5-min Rain = 0
KME1 110329Z 22004KT 02/01 A3036 RMK A01 T00170011  RH  096%=      5-min Rain = 0
KME1 110330Z 22005KT 02/01 A3036 RMK A01 T00170011  RH  096%=      5-min Rain = 0
KME1 110331Z 22005KT 02/01 A3036 RMK A01 T00180012  RH  096%=      5-min Rain = 0
KME1 110332Z 22004KT 02/01 A3036 RMK A01 T00180012  RH  096%=      5-min Rain = 0
KME1 110333Z 22004KT 02/01 A3036 RMK A01 T00180012  RH  096%=      5-min Rain = 0
KME1 110334Z 22004KT 02/01 A3036 RMK A01 T00180012  RH  096%=      5-min Rain = 0
KME1 110335Z 21004KT 02/01 A3036 RMK A01 T00180012  RH  096%=      5-min Rain = 0
KME1 110336Z 21004KT 02/01 A3036 RMK A01 T00180012  RH  096%=      5-min Rain = 0
KME1 110337Z 22003KT 02/01 A3036 RMK A01 T00170011  RH  095%=      5-min Rain = 0
KME1 110338Z 22003KT 02/01 A3036 RMK A01 T00170010  RH  095%=      5-min Rain = 0
KME1 110339Z 21004KT 02/01 A3036 RMK A01 T00160008  RH  095%=      5-min Rain = 0
KME1 110340Z 21004KT 02/01 A3036 RMK A01 T00150008  RH  095%=      5-min Rain = 0
KME1 110341Z 22003KT 02/01 A3036 RMK A01 T00150009  RH  096%=      5-min Rain = 0
KME1 110342Z 22003KT 02/01 A3036 RMK A01 T00150009  RH  096%=      5-min Rain = 0
KME1 110343Z 22003KT 02/01 A3036 RMK A01 T00150009  RH  096%=      5-min Rain = 0
KME1 110344Z 22003KT 02/01 A3036 RMK A01 T00150010  RH  096%=      5-min Rain = 0
KME1 110345Z 23002KT 02/01 A3036 RMK A01 T00150010  RH  097%=      5-min Rain = 0
KME1 110346Z 23002KT 02/01 A3036 RMK A01 T00160011  RH  097%=      5-min Rain = 0
KME1 110347Z 22002KT 02/01 A3036 RMK A01 T00160011  RH  097%=      5-min Rain = 0
KME1 110348Z 21002KT 02/01 A3036 RMK A01 T00160011  RH  097%=      5-min Rain = 0
KME1 110349Z 22002KT 02/01 A3036 RMK A01 T00160011  RH  097%=      5-min Rain = 0
KME1 110350Z 22002KT 02/01 A3036 RMK A01 T00150010  RH  097%=      5-min Rain = 0
KME1 110351Z 22002KT 02/01 A3036 RMK A01 T00150010  RH  097%=      5-min Rain = 0
KME1 110352Z 22002KT 01/01 A3036 RMK A01 T00140009  RH  097%=      5-min Rain = 0
KME1 110353Z 22002KT 01/01 A3036 RMK A01 T00140010  RH  097%=      5-min Rain = 0
KME1 110354Z 21002KT 01/01 A3036 RMK A01 T00140010  RH  097%=      5-min Rain = 0
KME1 110355Z 21002KT 01/01 A3036 RMK A01 T00140010  RH  097%=      5-min Rain = 0
KME1 110356Z 21003KT 01/01 A3036 RMK A01 T00140010  RH  097%=      5-min Rain = 0
KME1 110357Z 21003KT 01/01 A3036 RMK A01 T00140010  RH  097%=      5-min Rain = 0
KME1 110358Z 21003KT 01/01 A3036 RMK A01 T00140009  RH  097%=      5-min Rain = 0
KME1 110359Z 22003KT 01/01 A3036 RMK A01 T00130009  RH  097%=      5-min Rain = 0
KME1 110400Z 21004KT 01/01 A3036 RMK A01 T00130008  RH  097%=      5-min Rain = 0
KME1 110401Z 20004KT 01/01 A3036 RMK A01 T00120008  RH  097%=      5-min Rain = 0
KME1 110402Z 20004KT 01/01 A3036 RMK A01 T00120008  RH  097%=      5-min Rain = 0
KME1 110403Z 21004KT 01/01 A3036 RMK A01 T00120007  RH  097%=      5-min Rain = 0
KME1 110404Z 20003KT 01/01 A3036 RMK A01 T00120007  RH  097%=      5-min Rain = 0
KME1 110405Z 20003KT 01/01 A3036 RMK A01 T00110008  RH  097%=      5-min Rain = 0
KME1 110406Z 21003KT 01/01 A3036 RMK A01 T00120008  RH  098%=      5-min Rain = 0
KME1 110407Z 21002KT 01/01 A3036 RMK A01 T00120009  RH  098%=      5-min Rain = 0
KME1 110408Z 21002KT 01/01 A3036 RMK A01 T00120010  RH  098%=      5-min Rain = 0
KME1 110409Z 21002KT 01/01 A3036 RMK A01 T00120010  RH  098%=      5-min Rain = 0
KME1 110410Z 21003KT 01/01 A3036 RMK A01 T00130011  RH  099%=      5-min Rain = 0
KME1 110411Z 21002KT 01/01 A3036 RMK A01 T00130011  RH  099%=      5-min Rain = 0
KME1 110412Z 21002KT 01/01 A3036 RMK A01 T00130011  RH  098%=      5-min Rain = 0
KME1 110413Z 21002KT 01/01 A3036 RMK A01 T00130010  RH  098%=      5-min Rain = 0
KME1 110414Z 22003KT 01/01 A3036 RMK A01 T00130009  RH  098%=      5-min Rain = 0
KME1 110415Z 22002KT 01/01 A3036 RMK A01 T00120008  RH  097%=      5-min Rain = 0
KME1 110416Z 22003KT 01/01 A3036 RMK A01 T00110006  RH  097%=      5-min Rain = 0
KME1 110417Z 22003KT 01/00 A3036 RMK A01 T00090003  RH  096%=      5-min Rain = 0
KME1 110418Z 22003KT 01/00 A3036 RMK A01 T00070002  RH  096%=      5-min Rain = 0
KME1 110419Z 21003KT 01/01 A3036 RMK A01 T00080005  RH  098%=      5-min Rain = 0
KME1 110420Z 21003KT 01/01 A3036 RMK A01 T00090007  RH  098%=      5-min Rain = 0
KME1 110421Z 21003KT 01/01 A3036 RMK A01 T00090007  RH  098%=      5-min Rain = 0
KME1 110422Z 21003KT 01/01 A3036 RMK A01 T00090007  RH  098%=      5-min Rain = 0
KME1 110423Z 21003KT 01/01 A3036 RMK A01 T00090006  RH  098%=      5-min Rain = 0
KME1 110424Z 21004KT 01/01 A3036 RMK A01 T00080005  RH  098%=      5-min Rain = 0
KME1 110425Z 21004KT 01/01 A3036 RMK A01 T00080006  RH  098%=      5-min Rain = 0
KME1 110426Z 21004KT 01/01 A3036 RMK A01 T00090007  RH  099%=      5-min Rain = 0
KME1 110427Z 21003KT 01/01 A3036 RMK A01 T00090008  RH  099%=      5-min Rain = 0
KME1 110428Z 21003KT 01/01 A3036 RMK A01 T00100008  RH  099%=      5-min Rain = 0
KME1 110429Z 20003KT 01/01 A3036 RMK A01 T00100008  RH  099%=      5-min Rain = 0
KME1 110430Z 19004KT 01/01 A3036 RMK A01 T00100008  RH  099%=      5-min Rain = 0
KME1 110431Z 19003KT 01/01 A3036 RMK A01 T00100008  RH  099%=      5-min Rain = 0
KME1 110432Z 19004KT 01/01 A3036 RMK A01 T00100008  RH  098%=      5-min Rain = 0
KME1 110433Z 19003KT 01/01 A3036 RMK A01 T00090006  RH  098%=      5-min Rain = 0
KME1 110434Z 20003KT 01/00 A3036 RMK A01 T00080004  RH  097%=      5-min Rain = 0
KME1 110435Z 20003KT 01/00 A3036 RMK A01 T00070002  RH  097%=      5-min Rain = 0
KME1 110436Z 20003KT 01/00 A3036 RMK A01 T00060001  RH  097%=      5-min Rain = 0
KME1 110437Z 20004KT 01/00 A3036 RMK A01 T00060002  RH  097%=      5-min Rain = 0
KME1 110438Z 20004KT 01/00 A3036 RMK A01 T00060004  RH  098%=      5-min Rain = 0
KME1 110439Z 20004KT 01/01 A3036 RMK A01 T00070005  RH  099%=      5-min Rain = 0
KME1 110440Z 20004KT 01/01 A3036 RMK A01 T00080006  RH  099%=      5-min Rain = 0
KME1 110441Z 21005KT 01/01 A3036 RMK A01 T00080007  RH  099%=      5-min Rain = 0
KME1 110442Z 21005KT 01/01 A3036 RMK A01 T00080007  RH  099%=      5-min Rain = 0
KME1 110443Z 22005KT 01/01 A3036 RMK A01 T00080006  RH  099%=      5-min Rain = 0
KME1 110444Z 22005KT 01/01 A3036 RMK A01 T00080007  RH  099%=      5-min Rain = 0
KME1 110445Z 22004KT 01/01 A3036 RMK A01 T00080007  RH  099%=      5-min Rain = 0
KME1 110446Z 22005KT 01/01 A3036 RMK A01 T00080007  RH  099%=      5-min Rain = 0
KME1 110447Z 22005KT 01/01 A3036 RMK A01 T00080008  RH  100%=      5-min Rain = 0
KME1 110448Z 21005KT 01/01 A3036 RMK A01 T00080008  RH  100%=      5-min Rain = 0
KME1 110449Z 21005KT 01/01 A3036 RMK A01 T00080008  RH  100%=      5-min Rain = 0
KME1 110450Z 21005KT 01/01 A3036 RMK A01 T00080007  RH  099%=      5-min Rain = 0
KME1 110451Z 20005KT 01/01 A3036 RMK A01 T00080007  RH  099%=      5-min Rain = 0
KME1 110452Z 20005KT 01/01 A3036 RMK A01 T00070005  RH  099%=      5-min Rain = 0
KME1 110453Z 21005KT 01/00 A3036 RMK A01 T00070004  RH  098%=      5-min Rain = 0
KME1 110454Z 21005KT 01/00 A3035 RMK A01 T00060003  RH  098%=      5-min Rain = 0
KME1 110455Z 21004KT 01/00 A3035 RMK A01 T00060003  RH  098%=      5-min Rain = 0
KME1 110456Z 21005KT 01/00 A3036 RMK A01 T00060004  RH  099%=      5-min Rain = 0
KME1 110457Z 21005KT 01/00 A3036 RMK A01 T00060004  RH  099%=      5-min Rain = 0
KME1 110458Z 22005KT 01/01 A3036 RMK A01 T00060005  RH  099%=      5-min Rain = 0
KME1 110459Z 22004KT 01/01 A3036 RMK A01 T00060005  RH  099%=      5-min Rain = 0
KME1 110500Z 22004KT 01/01 A3036 RMK A01 T00060005  RH  099%=      5-min Rain = 0
KME1 110501Z 21004KT 01/01 A3036 RMK A01 T00060005  RH  099%=      5-min Rain = 0
KME1 110502Z 21005KT 01/00 A3036 RMK A01 T00060004  RH  099%=      5-min Rain = 0
KME1 110503Z 21004KT 01/00 A3036 RMK A01 T00050004  RH  099%=      5-min Rain = 0
KME1 110504Z 22004KT 01/00 A3036 RMK A01 T00050004  RH  099%=      5-min Rain = 0
KME1 110505Z 22004KT 01/00 A3036 RMK A01 T00050003  RH  099%=      5-min Rain = 0
KME1 110506Z 21004KT 01/00 A3036 RMK A01 T00050003  RH  099%=      5-min Rain = 0
KME1 110507Z 21004KT 00/00 A3036 RMK A01 T00040003  RH  099%=      5-min Rain = 0
KME1 110508Z 21003KT 00/00 A3036 RMK A01 T00040002  RH  099%=      5-min Rain = 0
KME1 110509Z 21003KT 00/00 A3036 RMK A01 T00030001  RH  099%=      5-min Rain = 0
KME1 110510Z 21003KT 00/00 A3036 RMK A01 T00030002  RH  099%=      5-min Rain = 0
KME1 110511Z 21003KT 00/00 A3036 RMK A01 T00030002  RH  099%=      5-min Rain = 0
KME1 110512Z 21003KT 00/00 A3036 RMK A01 T00030002  RH  099%=      5-min Rain = 0
KME1 110513Z 21003KT 00/00 A3036 RMK A01 T00030002  RH  099%=      5-min Rain = 0
KME1 110514Z 21003KT 00/00 A3036 RMK A01 T00030003  RH  100%=      5-min Rain = 0
KME1 110515Z 21003KT 00/00 A3036 RMK A01 T00030003  RH  100%=      5-min Rain = 0
KME1 110516Z 21002KT 00/00 A3035 RMK A01 T00040003  RH  100%=      5-min Rain = 0
KME1 110517Z 20003KT 00/00 A3035 RMK A01 T00030003  RH  100%=      5-min Rain = 0
KME1 110518Z 20003KT 00/00 A3035 RMK A01 T00030002  RH  099%=      5-min Rain = 0
KME1 110519Z 20003KT 00/00 A3035 RMK A01 T00030001  RH  099%=      5-min Rain = 0
KME1 110520Z 20003KT 00/00 A3035 RMK A01 T00020001  RH  099%=      5-min Rain = 0
KME1 110521Z 20003KT 00/00 A3035 RMK A01 T00020000  RH  099%=      5-min Rain = 0
KME1 110522Z 20003KT 00/00 A3035 RMK A01 T00020000  RH  099%=      5-min Rain = 0
KME1 110523Z 20003KT 00/00 A3035 RMK A01 T00020000  RH  099%=      5-min Rain = 0
KME1 110524Z 21003KT 00/00 A3035 RMK A01 T000100-0  RH  099%=      5-min Rain = 0
KME1 110525Z 21003KT 00/M00 A3035 RMK A01 T00011001  RH  099%=      5-min Rain = 0
KME1 110526Z 21003KT 00/M00 A3035 RMK A01 T00011001  RH  099%=      5-min Rain = 0
KME1 110527Z 21003KT 00/00 A3035 RMK A01 T000000-2  RH  099%=      5-min Rain = 0
KME1 110528Z 21003KT 00/00 A3035 RMK A01 T000000-2  RH  099%=      5-min Rain = 0
KME1 110529Z 21003KT 00/00 A3035 RMK A01 T00-000-2  RH  099%=      5-min Rain = 0
KME1 110530Z 21003KT M00/M00 A3035 RMK A01 T10011003  RH  099%=      5-min Rain = 0
KME1 110531Z 21003KT M00/M00 A3035 RMK A01 T10011003  RH  099%=      5-min Rain = 0
KME1 110532Z 21004KT M00/M00 A3035 RMK A01 T10011003  RH  099%=      5-min Rain = 0
KME1 110533Z 22003KT M00/M00 A3035 RMK A01 T10011003  RH  099%=      5-min Rain = 0
KME1 110534Z 21003KT M00/M00 A3035 RMK A01 T10021003  RH  099%=      5-min Rain = 0
KME1 110535Z 20003KT M00/M00 A3035 RMK A01 T10021003  RH  099%=      5-min Rain = 0
KME1 110536Z 21002KT M00/M00 A3035 RMK A01 T10021003  RH  099%=      5-min Rain = 0
KME1 110537Z 20002KT M00/M00 A3035 RMK A01 T10021003  RH  099%=      5-min Rain = 0
KME1 110538Z 20002KT M00/M00 A3035 RMK A01 T10021003  RH  099%=      5-min Rain = 0
KME1 110539Z 20002KT M00/M00 A3035 RMK A01 T10021003  RH  099%=      5-min Rain = 0
KME1 110540Z 20002KT M00/M00 A3035 RMK A01 T10031004  RH  099%=      5-min Rain = 0
KME1 110541Z 21001KT M00/M00 A3035 RMK A01 T10031004  RH  099%=      5-min Rain = 0
KME1 110542Z 21001KT M00/M00 A3035 RMK A01 T10031004  RH  099%=      5-min Rain = 0
KME1 110543Z 21001KT M00/M01 A3035 RMK A01 T10031005  RH  099%=      5-min Rain = 0
KME1 110544Z 22001KT M00/M00 A3035 RMK A01 T10031004  RH  099%=      5-min Rain = 0
KME1 110545Z 22001KT M00/M00 A3035 RMK A01 T10031004  RH  100%=      5-min Rain = 0
KME1 110546Z 22000KT M00/M00 A3035 RMK A01 T10031003  RH  100%=      5-min Rain = 0
KME1 110547Z 22000KT M00/M00 A3035 RMK A01 T10031003  RH  100%=      5-min Rain = 0
KME1 110548Z 30000KT M00/M00 A3035 RMK A01 T10031003  RH  100%=      5-min Rain = 0
KME1 110549Z 30001KT M00/M00 A3035 RMK A01 T10031003  RH  100%=      5-min Rain = 0
KME1 110550Z 32000KT M00/M00 A3035 RMK A01 T10041004  RH  100%=      5-min Rain = 0
KME1 110551Z 21000KT M00/M00 A3035 RMK A01 T10041004  RH  100%=      5-min Rain = 0
KME1 110552Z 27000KT M00/M00 A3035 RMK A01 T10041004  RH  100%=      5-min Rain = 0
KME1 110553Z 00000KT M00/M01 A3035 RMK A01 T10041005  RH  099%=      5-min Rain = 0
KME1 110554Z 00000KT M01/M01 A3035 RMK A01 T10051007  RH  099%=      5-min Rain = 0
KME1 110555Z 19000KT M01/M01 A3035 RMK A01 T10061007  RH  099%=      5-min Rain = 0
KME1 110556Z 18001KT M01/M01 A3035 RMK A01 T10061006  RH  100%=      5-min Rain = 0
KME1 110557Z 20001KT M00/M00 A3035 RMK A01 T10041004  RH  100%=      5-min Rain = 0
KME1 110558Z 20001KT M00/M00 A3035 RMK A01 T10041004  RH  100%=      5-min Rain = 0
KME1 110559Z 20001KT M00/M00 A3035 RMK A01 T10041004  RH  100%=      5-min Rain = 0

Page generated in 0.1237 seconds.